GFSMW_prec_cloud_003.txt.gz
Cloud_Cover
48 13 2 4 6 4 5 5 5 5 5 5 5 5 5 5 5 5 29 51 28 5 5 5 5 5 5 5 8 7 5 2 0 0 2 4 0 0 0 5 5 5 15
10 7 7 0 5 5 8 5 5 10 24 9 5 5 5 1 1 2 4 4 5 5 5 4 5 5 5 5 5 6 42 12 5 0 0 0 2 5 5 5 16 96 47
5 19 9 5 3 3 1 2 5 5 5 2 5 5 1 0 3 34 52 62 52 5 5 5 5 26 35 4 5 5 48 97 50 49 42 55 12 5 19 50 32 36 11
3 3 5 5 3 5 5 7 72 85 94 100 94 99 100 100 100 100 100 100 100 100 90 60 25 76 92 98 80 83 24 5 13 33 100 100 75 58 78 100 99 5 4
90 70 5 5 31 5 6 59 46 38 60 25 100 100 100 100 100 100 100 100 100 91 26 36 61 100 100 98 100 99 100 100 100 93 100 100 100 64 53 8 97 77 5
81 8 43 82 29 32 5 5 64 72 52 44 52 40 55 32 4 4 2 0 0 0 0 13 76 98 42 45 100 100 78 61 98 100 99 90 71 90 82 44 5 61 5
5 26 90 8 28 10 5 5 6 5 5 5 5 5 5 5 0 0 0 0 0 0 0 4 5 100 98 100 100 100 100 97 98 97 100 100 100 100 14 5 0 0 0
50 77 22 5 6 3 2 0 5 5 4 0 0 0 5 1 5 0 0 0 0 0 0 4 12 100 99 100 100 100 100 100 100 100 100 100 95 93 98 6 5 0 0
72 5 5 5 5 5 0 0 0 0 0 0 0 0 0 5 0 0 0 0 0 0 5 16 35 96 100 100 100 100 100 100 100 100 100 100 99 30 5 5 5 5 2
5 5 5 18 5 5 5 3 0 5 3 3 1 0 0 0 0 0 0 1 4 5 76 100 100 100 100 100 100 100 100 100 100 100 100 96 69 39 21 6 61 46 6
6 5 42 72 52 68 16 5 5 5 5 5 5 1 0 0 0 4 5 5 56 87 100 100 100 100 100 100 100 100 100 100 100 100 100 100 100 16 38 79 63 48 56
17 25 99 89 16 80 51 53 45 99 13 5 5 5 4 3 2 4 37 89 100 100 100 94 73 100 100 100 100 100 100 100 100 100 100 100 100 100 99 77 24 6 32
30 32 66 68 100 88 78 46 88 46 18 82 21 1 0 0 5 36 100 100 100 100 100 100 100 100 100 100 100 92 75 100 100 100 100 100 100 100 100 100 97 54 5
37 79 99 99 100 98 76 94 6 56 31 49 61 10 5 5 60 100 100 91 100 100 100 100 100 100 100 100 100 100 100 74 100 100 100 100 100 51 6 5 3 4 5
49 14 86 48 6 12 11 81 75 13 99 97 38 39 87 100 100 87 100 100 100 100 100 100 100 100 100 100 100 100 100 100 100 100 100 86 8 5 5 5 5 22 16
5 5 12 14 5 19 99 24 27 64 5 7 86 100 100 100 100 100 100 100 100 100 100 100 100 100 100 100 100 100 100 100 100 72 20 5 5 4 4 5 5 5 14
14 99 71 98 100 100 100 100 90 27 5 29 12 51 100 92 100 100 100 100 100 100 100 100 100 100 100 100 100 83 82 40 5 5 5 5 5 5 5 5 6 5 5
97 100 100 100 100 100 100 100 100 100 79 84 93 96 94 92 97 100 100 100 100 100 100 100 100 100 100 100 60 36 5 5 5 5 5 41 39 85 99 100 100 99 97
53 84 100 100 100 100 100 47 61 43 100 56 100 100 100 98 100 100 100 100 100 100 94 93 98 100 100 75 56 5 5 5 5 10 16 96 98 42 99 100 100 100 100
100 100 100 98 100 100 100 100 8 72 97 73 93 93 100 100 100 100 100 100 100 100 100 100 100 89 78 38 5 5 98 100 97 100 91 59 94 99 100 100 100 100 100
100 100 98 99 96 99 99 53 7 5 59 5 42 53 100 71 66 100 100 100 100 99 85 58 42 10 5 5 5 66 100 98 100 91 78 95 88 99 99 100 100 100 100
100 100 65 27 90 88 100 29 8 6 5 6 56 84 76 95 100 100 84 70 48 21 6 15 5 5 5 5 5 88 93 100 100 97 100 100 94 100 92 87 92 99 99
100 99 100 20 98 74 100 100 98 66 40 79 42 86 96 84 13 17 8 5 5 6 38 34 13 8 13 5 5 5 94 100 96 100 100 99 86 98 90 78 91 86 94
100 92 5 5 85 100 100 96 34 41 5 5 41 64 43 5 5 5 5 5 5 30 53 14 33 97 32 5 12 95 100 100 100 100 100 95 81 89 95 95 89 94 99
100 100 100 84 38 19 5 5 5 5 5 20 46 7 5 5 18 5 11 19 46 61 48 12 96 100 86 73 100 100 100 100 100 100 100 100 100 91 99 100 93 97 100
100 98 19 5 11 33 5 5 5 5 5 6 5 5 5 70 95 15 66 95 6 5 5 5 99 100 100 100 100 100 100 100 100 100 100 100 99 100 100 100 96 81 99

GFSMW_prec_cloud_006.txt.gz
Cloud_Cover
0 0 0 0 0 0 0 0 5 5 5 5 5 5 5 5 5 5 0 1 1 0 0 0 0 0 1 3 1 0 0 0 0 0 0 0 0 0 0 0 0 0 2
1 8 5 5 0 0 2 5 5 5 5 1 0 0 1 1 3 9 88 26 39 32 23 12 77 73 31 8 5 5 4 0 0 0 0 0 0 0 0 0 0 0 5
3 3 5 5 0 5 5 5 5 5 5 8 31 77 90 68 25 96 100 95 81 60 8 18 3 1 5 5 5 5 5 5 5 5 5 1 0 5 12 3 0 0 31
1 1 0 0 0 1 5 5 36 51 80 41 36 16 6 5 5 6 4 2 0 0 0 0 0 4 5 5 41 60 90 13 5 35 68 98 67 5 23 100 92 31 11
5 0 1 2 0 5 5 45 19 5 5 5 5 5 5 5 5 0 0 0 0 0 0 0 0 0 0 3 46 100 100 100 97 97 91 98 100 100 100 100 100 100 100
2 5 5 5 5 5 5 4 5 5 5 5 6 19 5 2 0 0 0 0 0 0 0 0 0 0 0 0 1 50 88 98 80 99 100 94 87 32 70 63 74 100 100
5 11 40 16 9 5 5 5 5 5 7 5 5 5 5 5 4 0 0 0 0 0 0 0 0 0 0 0 0 14 99 53 97 99 100 100 100 100 99 95 38 14 48
44 80 43 42 5 5 5 32 30 73 97 100 10 5 5 20 69 26 4 5 0 0 75 18 0 4 5 5 51 95 100 100 100 100 100 100 100 100 100 100 100 10 5
6 36 88 98 100 100 98 100 100 100 98 97 79 96 92 65 76 85 6 5 5 5 22 5 5 6 67 87 97 100 100 100 100 100 100 100 100 100 100 100 100 99 4
54 77 100 100 56 24 87 63 55 5 25 5 8 27 59 60 5 3 3 5 5 5 78 80 66 100 100 97 57 100 100 100 100 100 100 100 100 100 100 100 92 64 20
27 82 36 91 71 5 40 55 5 66 32 66 89 92 73 20 5 5 1 4 5 78 95 96 71 100 100 100 100 100 100 100 100 100 100 100 100 100 100 100 100 37 5
7 5 7 5 84 30 37 56 74 72 77 53 39 95 100 95 25 6 96 100 100 100 38 97 100 100 100 100 100 100 100 100 100 100 100 100 100 100 100 100 100 11 5
53 61 78 92 99 92 52 88 84 78 99 80 97 100 100 100 100 100 100 88 81 57 91 100 100 100 100 100 100 100 100 100 100 100 100 100 100 100 100 98 71 69 7
7 5 10 5 59 80 71 67 100 100 100 100 100 100 100 100 100 94 33 94 100 98 100 100 100 100 100 100 100 100 100 100 100 100 100 100 87 53 20 14 6 33 54
56 13 5 16 78 99 95 100 100 100 97 100 100 100 100 100 100 100 99 79 90 100 100 100 100 100 100 100 100 100 100 100 91 76 79 86 45 34 10 5 11 59 87
9 69 99 100 100 94 99 100 100 100 100 92 100 100 100 100 100 85 83 100 100 100 100 100 100 100 100 100 100 100 100 100 100 100 100 89 14 5 5 6 39 86 100
99 100 100 100 93 94 81 89 100 100 100 100 84 85 84 86 100 87 88 52 100 100 100 100 100 100 100 100 100 100 100 100 100 56 53 5 5 13 15 58 97 100 82
100 100 100 99 100 100 99 100 94 100 100 30 42 14 46 98 100 99 85 94 90 74 100 100 100 100 100 100 99 100 98 93 70 77 5 20 12 74 100 100 100 93 81
100 100 98 100 73 85 89 93 44 74 35 60 5 5 14 6 86 97 81 100 100 100 100 99 83 64 85 31 49 58 96 92 37 6 68 88 99 48 100 100 100 100 100
100 100 97 91 100 100 100 100 100 100 100 94 5 52 5 5 5 5 75 100 100 100 99 100 99 56 12 5 11 41 85 88 84 15 57 52 96 100 100 100 100 100 100
84 98 100 100 100 100 100 100 38 97 92 84 92 93 24 5 5 7 45 76 60 36 16 9 5 5 5 5 5 49 100 99 100 96 94 100 100 98 100 100 92 91 92
97 99 100 100 63 47 88 92 100 100 82 68 62 68 61 5 5 15 21 5 5 5 5 44 7 5 5 5 5 64 96 99 100 100 100 98 96 100 99 92 97 100 100
100 100 63 99 100 25 7 4 12 12 9 6 58 80 16 5 5 4 4 5 5 40 37 68 44 6 65 5 5 5 90 99 100 100 100 100 100 100 82 95 100 98 98
98 100 100 100 76 5 37 38 9 82 64 5 5 5 5 8 5 5 7 11 16 64 80 47 80 100 69 8 17 100 86 100 100 100 100 100 100 82 86 84 86 90 95
100 100 91 16 6 81 93 100 97 80 7 5 5 5 5 5 5 16 82 69 33 63 97 19 92 96 94 80 100 100 100 100 100 100 100 100 100 100 100 100 85 100 100
73 26 5 5 98 100 100 100 89 84 8 49 5 5 6 42 14 5 6 46 11 21 5 46 78 98 98 100 100 100 100 100 100 100 100 100 100 80 99 100 99 92 99

GFSMW_prec_cloud_009.txt.gz
Cloud_Cover
0 0 0 0 0 0 0 5 5 5 5 5 0 0 0 0 0 0 0 0 0 0 0 0 10 14 8 4 0 2 4 2 0 5 0 0 0 0 0 0 0 0 4
0 0 0 0 0 5 4 5 5 5 5 5 4 0 2 2 3 5 27 5 5 5 53 60 15 0 0 0 0 0 3 5 5 5 3 2 0 0 0 0 0 0 0
0 0 0 0 5 5 4 5 1 0 0 0 1 2 5 12 15 5 5 7 15 19 5 0 0 0 0 0 0 0 0 5 5 5 4 5 3 2 3 2 0 0 0
0 0 0 0 1 5 5 5 5 4 4 5 5 5 5 5 5 5 5 5 5 5 5 2 0 0 0 0 0 0 0 5 31 35 96 5 5 5 1 5 48 25 13
1 5 5 5 5 5 5 8 31 5 6 69 40 7 17 44 5 5 5 5 5 5 0 0 0 2 0 1 2 4 6 4 17 53 71 53 40 7 5 5 40 100 86
5 5 5 5 10 60 25 54 42 86 96 90 49 67 35 18 5 5 5 7 5 5 5 5 3 5 5 5 30 92 66 86 10 6 18 100 99 95 5 64 7 10 81
5 5 6 6 5 10 54 90 100 51 28 82 97 80 16 5 7 42 55 7 5 5 5 5 5 5 9 38 88 66 98 100 100 100 100 100 100 100 100 100 98 83 10
28 74 6 80 95 88 96 73 7 8 35 51 15 19 87 90 73 85 10 34 13 10 5 13 5 6 90 91 87 19 100 100 100 100 100 100 100 100 100 100 94 66 37
80 44 5 66 100 100 100 100 100 99 62 11 66 80 67 64 69 95 100 99 100 98 99 79 54 10 41 28 96 100 100 100 100 100 100 100 100 100 100 100 100 80 12
21 32 66 82 93 96 60 46 56 39 11 48 85 100 97 74 97 73 42 85 97 66 33 39 96 58 92 98 100 100 100 100 100 100 100 100 100 100 100 100 100 96 86
79 89 18 16 50 37 30 7 40 96 100 100 100 100 100 57 70 36 70 99 76 88 81 65 76 95 100 100 100 100 100 100 100 100 100 100 100 100 100 100 100 92 35
91 29 5 6 5 5 5 83 100 100 100 100 100 90 86 79 100 88 22 31 97 88 98 100 100 100 100 100 100 100 100 100 100 100 100 100 100 100 99 100 73 67 56
5 42 19 5 5 9 97 100 100 100 100 100 100 100 99 96 50 54 95 51 98 100 100 99 100 100 100 100 100 100 100 100 100 100 100 100 100 100 100 100 100 100 100
69 5 40 9 49 100 100 100 100 100 100 100 100 97 84 48 95 100 98 99 100 97 96 95 100 100 100 100 100 100 100 100 100 100 100 100 100 100 100 100 100 99 59
25 9 92 100 100 100 100 100 100 100 100 100 93 60 48 100 96 97 100 100 100 100 100 93 100 100 84 100 100 100 100 100 100 100 100 100 100 100 100 49 29 82 100
96 100 100 100 100 100 100 100 100 100 77 100 100 99 73 22 15 5 5 8 98 100 100 100 100 100 100 100 100 100 87 100 100 100 100 98 59 5 54 78 92 90 99
100 100 100 100 100 100 77 92 43 64 34 22 16 12 13 5 5 5 5 5 5 5 5 5 51 97 96 89 94 54 18 19 46 82 100 100 100 94 95 98 100 100 100
100 100 100 100 100 39 10 69 60 62 16 5 5 72 83 48 5 5 5 5 5 5 5 6 23 50 50 32 41 67 100 100 100 100 100 100 100 97 100 100 100 100 100
100 100 100 100 88 32 5 6 5 5 22 82 100 100 78 70 5 5 5 5 5 5 31 30 6 5 5 5 5 28 96 100 97 97 98 100 99 100 100 100 99 100 100
100 100 100 100 79 58 42 9 6 23 100 100 100 100 99 23 5 5 5 5 5 5 6 5 5 5 5 5 7 95 100 100 100 100 100 99 95 88 100 100 100 100 100
100 96 75 99 100 100 86 5 10 5 36 59 67 96 54 63 5 5 5 5 4 5 5 5 5 25 7 10 69 98 100 100 100 100 100 100 100 100 94 99 100 100 100
99 99 100 100 100 100 61 20 4 5 5 5 52 32 10 5 5 5 3 5 5 9 66 78 97 100 98 99 62 79 100 99 100 100 100 100 100 99 97 90 100 100 99
100 100 100 100 100 100 13 5 5 5 5 5 38 5 5 5 5 5 5 70 85 99 97 100 100 100 100 100 100 93 100 99 100 100 100 100 98 100 85 100 100 99 100
100 98 89 98 93 5 80 94 71 95 80 72 13 5 5 5 5 50 69 100 100 100 100 100 100 100 100 100 100 100 100 100 100 100 100 100 100 100 99 100 100 100 100
20 29 34 5 5 33 98 100 100 100 100 72 5 5 52 5 55 35 5 93 98 95 100 100 100 100 100 100 100 100 100 100 100 100 100 100 100 100 100 100 100 100 100
7 5 5 12 96 100 100 100 100 100 79 19 5 5 5 40 61 7 60 23 9 9 5 45 88 100 100 100 100 100 100 100 100 100 100 100 100 100 100 100 100 100 100

GFSMW_prec_cloud_015.txt.gz
Cloud_Cover
0 0 0 0 0 0 0 0 5 5 80 64 78 98 85 96 87 25 5 5 5 5 5 4 5 5 5 5 5 5 6 92 100 50 28 71 47 53 70 42 4 3 5
0 0 0 0 0 0 0 4 5 87 100 99 100 100 96 80 64 69 13 63 14 87 74 83 62 5 5 18 71 6 29 97 100 5 5 5 5 75 10 22 26 3 4
0 0 0 0 0 5 5 5 66 100 100 100 71 26 88 94 88 40 32 71 16 5 5 5 5 9 10 17 9 83 99 86 50 5 4 2 3 24 59 63 97 85 27
0 0 0 0 5 5 5 5 18 3 5 16 89 100 98 42 100 72 69 32 5 14 5 5 5 22 82 98 84 100 100 100 13 5 5 26 23 5 4 24 75 100 96
0 0 0 4 4 4 5 5 5 5 26 98 100 100 100 100 92 53 5 18 93 72 7 5 6 48 88 100 100 99 99 59 5 6 7 5 5 27 72 20 98 100 100
0 0 4 5 0 5 5 5 9 61 83 65 47 23 69 59 37 33 16 18 32 13 47 98 100 100 100 100 100 100 74 89 86 90 99 100 98 100 100 100 100 100 100
3 5 5 5 5 5 5 18 51 89 79 64 98 68 70 81 88 71 99 96 71 100 100 100 96 48 94 100 100 100 100 100 82 58 90 99 100 100 100 100 100 92 100
2 3 5 5 7 52 95 100 79 51 15 32 50 99 53 93 95 82 100 100 100 100 100 28 97 99 100 100 100 100 100 100 85 79 74 100 100 100 99 100 100 100 100
5 7 15 80 100 100 90 5 29 76 65 68 43 47 59 96 100 93 100 100 100 100 100 31 89 100 100 100 99 88 100 96 82 85 62 100 100 100 100 100 100 100 100
20 58 97 46 39 7 70 51 10 48 35 88 92 100 98 94 93 100 100 100 100 98 61 78 100 100 100 100 100 100 100 100 100 100 100 100 99 100 100 100 100 100 100
71 73 71 85 84 92 100 100 100 100 98 96 57 73 86 100 100 100 49 94 76 70 73 90 95 99 78 100 92 100 100 100 100 100 99 94 100 100 100 100 100 100 99
78 89 98 100 100 100 82 70 74 96 96 96 100 100 100 100 88 100 100 100 100 100 96 73 55 92 92 98 100 100 100 100 100 100 100 100 100 100 100 100 100 96 100
73 100 100 100 100 98 65 95 73 86 99 100 100 100 100 100 96 100 100 96 100 99 100 90 61 83 68 80 81 93 78 80 98 100 100 99 100 100 100 100 100 100 100
64 93 87 92 71 90 75 64 84 100 100 86 98 56 33 61 94 100 100 100 99 96 33 5 5 5 5 5 7 27 18 18 41 76 98 96 90 86 97 99 91 98 100
100 97 38 56 98 100 100 100 82 84 95 98 44 5 68 95 100 100 99 97 73 5 5 5 5 5 5 73 5 4 5 5 6 19 35 94 100 78 16 13 91 100 67
5 61 100 100 100 92 78 86 86 13 5 5 28 79 98 99 100 100 97 93 5 5 5 5 24 96 100 98 5 3 5 5 5 42 67 90 100 98 100 80 5 25 96
74 79 78 82 91 91 65 100 99 100 91 98 100 89 76 100 100 100 100 100 24 7 62 95 100 100 100 76 5 5 5 5 33 98 100 100 100 100 100 100 100 99 83
23 78 92 97 74 6 5 100 100 100 100 100 100 86 97 100 100 100 100 100 100 100 100 100 98 92 100 96 7 5 37 94 100 100 100 100 100 100 96 99 100 100 100
99 100 96 28 5 5 50 100 100 100 100 100 70 82 97 99 100 100 100 100 100 100 100 92 90 97 99 96 90 27 100 100 100 100 100 100 98 100 94 100 100 100 100
71 5 15 5 5 5 5 5 23 100 100 100 100 40 96 100 100 100 100 100 100 100 30 23 97 100 97 100 100 91 100 100 100 100 100 94 98 100 100 100 100 100 100
41 6 32 27 5 5 5 5 18 100 100 100 98 50 90 100 100 100 100 100 100 81 64 15 82 98 100 95 100 96 100 100 100 100 100 100 100 100 100 97 100 99 98
5 5 5 5 5 5 5 5 21 31 29 66 27 66 100 100 100 100 100 100 91 98 65 100 85 100 89 100 100 96 48 100 100 100 100 100 98 98 100 100 100 100 100
5 5 5 5 5 11 68 83 91 49 89 62 85 100 100 100 100 100 100 99 100 100 100 100 100 100 99 100 100 81 100 100 100 100 100 100 100 100 100 100 100 100 100
5 5 5 10 89 100 100 100 45 91 100 100 100 100 100 100 100 100 100 100 98 97 100 100 100 100 100 100 100 100 100 100 100 100 100 100 100 100 100 100 100 100 100
5 5 66 100 100 100 100 96 99 95 97 100 99 100 100 100 99 68 93 75 98 53 47 59 95 100 100 100 100 100 100 100 100 100 100 100 100 100 100 100 100 100 100
5 73 88 88 88 48 98 88 100 89 50 84 90 99 93 98 94 93 98 95 6 5 5 5 12 86 98 100 100 100 100 100 100 100 100 100 100 100 100 100 100 100 100

GFSMW_prec_cloud_018.txt.gz
Cloud_Cover
0 1 3 0 0 0 0 0 3 5 5 5 74 49 49 84 80 92 82 5 43 53 5 5 5 5 4 1 5 5 1 4 2 2 5 5 5 5 46 97 100 30 5
0 0 0 0 0 0 0 5 66 98 70 59 60 68 5 94 99 97 68 12 62 60 71 5 0 0 0 1 0 1 0 0 4 8 11 24 43 86 81 100 100 90 38
0 0 0 0 0 2 32 99 43 5 74 43 4 5 5 78 96 26 90 80 23 7 3 2 3 4 5 5 5 5 5 5 87 100 100 100 100 100 100 100 100 100 95
0 0 0 1 5 8 6 5 5 3 1 5 5 36 54 22 5 6 5 5 5 78 91 96 75 74 12 5 5 36 93 87 58 100 100 55 30 13 12 46 99 70 5
0 0 0 0 0 2 5 5 5 4 5 5 5 5 5 5 11 30 76 62 60 69 100 94 38 74 28 58 97 100 100 100 92 22 5 6 5 18 26 6 2 26 20
0 0 0 1 0 4 4 5 4 5 5 47 17 89 75 100 100 100 100 100 100 100 100 100 100 90 97 100 100 100 73 100 100 100 77 97 100 99 100 99 100 83 5
0 7 5 12 18 13 5 10 13 26 15 67 82 87 87 100 100 100 100 100 100 100 99 98 100 83 60 16 40 100 100 100 100 92 100 100 100 100 100 100 100 100 96
2 2 3 5 5 9 5 38 36 50 100 100 100 100 100 93 87 56 48 72 100 100 86 15 5 28 35 74 78 100 100 99 38 87 94 88 97 100 96 58 95 93 27
20 76 96 10 14 85 36 6 68 100 100 100 100 95 100 100 100 100 100 100 100 100 94 60 90 64 85 100 100 100 100 87 91 100 100 100 77 40 98 86 100 100 69
58 31 6 62 47 6 97 100 100 100 100 100 100 100 100 96 65 100 96 88 63 8 5 5 52 78 71 43 76 51 60 60 90 100 100 100 100 100 100 76 98 100 100
5 5 5 5 73 99 100 100 92 100 79 98 100 92 39 10 9 49 6 5 2 4 5 67 5 14 37 89 98 82 94 82 61 95 100 100 100 100 100 84 98 96 100
6 4 5 5 6 34 62 11 100 37 100 88 13 5 5 5 84 47 5 1 5 5 5 36 5 39 19 38 26 8 6 6 16 10 88 100 100 100 100 100 94 96 97
38 17 59 15 5 5 6 36 8 14 5 5 5 5 5 88 5 5 2 5 5 5 22 8 5 5 5 3 5 11 90 5 4 1 13 78 34 43 86 98 83 95 85
5 5 7 5 27 19 5 59 8 80 6 5 5 2 4 1 5 1 0 12 61 20 5 5 5 5 21 5 5 5 5 5 0 0 0 0 5 5 16 81 85 15 29
5 5 5 5 5 5 5 5 5 9 5 32 8 62 54 99 37 5 5 5 64 8 5 5 5 5 20 80 31 5 1 0 0 0 0 1 5 6 83 100 87 10 5
5 5 5 5 5 5 22 94 34 96 99 100 92 100 66 5 5 2 2 5 98 5 5 99 96 17 66 62 1 5 5 5 5 3 2 5 5 42 100 97 85 28 33
36 8 5 10 83 59 11 17 94 95 45 18 36 100 73 36 47 17 5 8 54 27 86 100 94 7 20 5 5 5 53 42 5 5 25 16 42 84 100 85 71 18 100
5 5 60 76 93 36 46 100 5 1 12 72 97 95 97 98 72 100 6 97 71 95 100 100 78 5 5 5 14 5 5 5 5 39 7 11 5 32 59 81 60 86 61
19 66 52 11 6 92 95 6 5 2 89 99 48 35 4 100 99 100 60 100 100 99 100 49 34 5 5 5 85 89 57 5 5 5 75 97 97 68 100 98 89 68 37
99 54 5 40 100 82 5 5 4 5 5 91 6 10 98 100 100 100 100 100 100 100 24 5 5 5 5 79 100 91 100 98 69 99 100 92 100 100 83 100 100 99 69
5 22 5 6 20 5 4 5 5 5 48 0 4 5 8 75 18 93 100 100 100 92 5 5 5 5 25 96 100 100 98 100 80 55 42 86 100 100 100 99 87 86 98
5 5 5 6 5 3 5 10 5 4 0 3 4 5 8 100 69 68 100 100 64 13 5 5 5 52 93 86 99 100 100 79 90 86 95 100 100 100 100 100 100 100 100
5 20 53 6 5 5 88 99 5 4 5 5 5 12 5 29 71 100 100 6 5 5 5 5 5 5 5 5 64 7 58 100 100 100 100 100 100 100 100 100 100 100 100
15 31 33 7 74 100 98 13 5 5 5 5 38 78 42 76 79 5 5 5 5 5 5 5 5 5 5 30 6 19 100 100 100 100 100 100 100 100 100 100 100 100 100
69 24 40 74 5 5 5 5 5 5 23 5 5 5 5 5 5 5 20 41 5 5 5 5 5 5 5 52 100 100 100 100 100 100 100 100 100 100 100 100 100 100 100
5 5 5 5 5 5 5 74 95 24 61 34 5 5 5 5 20 35 11 16 5 8 5 5 5 5 32 100 100 100 100 100 100 100 100 100 100 100 100 100 100 100 100

GFSMW_prec_cloud_021.txt.gz
Cloud_Cover
0 0 0 2 5 5 0 0 0 3 5 5 41 7 5 47 6 48 5 33 22 50 5 4 0 0 0 0 0 5 0 5 4 0 0 5 5 5 5 5 5 5 5
0 0 0 0 17 12 0 2 36 68 7 14 13 5 5 5 5 83 81 50 9 41 5 0 0 0 0 0 4 5 5 5 5 2 0 3 5 5 5 5 5 5 9
0 0 0 0 1 2 16 83 46 95 68 5 5 4 2 5 5 63 98 98 88 41 3 4 4 4 5 5 1 0 0 5 7 34 9 55 58 45 99 98 70 62 67
0 0 0 5 5 5 8 0 3 5 5 5 2 1 1 5 5 7 31 90 37 6 5 5 0 0 0 4 2 4 3 43 69 93 99 98 100 100 27 52 100 100 100
0 0 0 0 0 0 0 5 5 5 0 5 5 46 99 95 100 100 67 43 45 88 64 41 96 96 100 100 100 99 100 100 100 100 100 100 67 50 51 15 9 4 5
0 0 0 0 0 0 0 1 0 0 0 2 0 5 68 89 100 100 100 100 100 100 89 97 44 14 5 5 5 5 18 7 98 100 99 95 97 94 100 99 18 47 6
0 0 0 1 5 2 4 5 5 92 88 82 61 12 5 5 6 5 35 100 78 13 7 31 5 5 4 1 2 5 62 94 100 95 14 20 37 100 100 100 71 100 19
4 5 3 0 0 4 5 5 43 100 100 100 60 97 97 93 68 83 89 31 5 5 5 5 1 17 100 79 93 86 35 5 5 5 64 79 99 100 100 100 100 100 44
49 5 5 2 2 5 16 10 5 48 94 66 100 100 94 60 99 94 52 5 5 5 5 1 3 81 98 29 46 35 52 67 61 68 79 99 100 100 100 100 92 95 100
72 5 5 5 5 3 5 5 5 6 46 22 5 7 5 5 5 18 33 5 5 5 1 0 1 5 5 5 51 99 5 70 100 92 87 75 79 99 100 100 100 100 100
7 5 8 5 5 5 5 4 5 5 5 14 6 9 5 5 5 5 4 0 0 0 2 2 0 5 45 62 16 5 4 0 3 5 7 4 4 58 95 100 100 100 100
77 97 5 5 5 50 50 5 5 11 19 12 7 5 5 7 4 0 0 0 0 0 0 0 1 4 5 5 5 5 5 5 38 93 70 23 0 3 5 77 100 96 82
56 5 18 83 45 8 5 5 5 5 5 26 93 71 73 64 11 5 4 10 30 2 2 0 0 0 4 5 35 70 83 54 87 94 42 4 0 0 0 6 5 5 5
5 5 6 5 5 13 5 9 31 81 69 15 22 34 63 39 7 95 39 100 79 91 84 20 0 4 5 13 54 20 5 5 0 1 2 0 0 0 2 5 5 19 5
5 4 5 5 6 39 34 6 5 5 2 5 6 5 5 19 51 81 100 92 100 99 100 34 4 15 5 5 5 2 4 4 5 5 5 0 4 72 40 96 53 13 90
5 6 16 7 5 5 5 5 5 5 5 20 14 4 5 100 82 30 100 100 100 100 97 28 58 5 4 5 30 12 5 4 5 1 0 1 5 59 47 100 87 100 100
32 9 5 5 5 5 5 5 5 5 51 13 5 1 5 66 73 47 100 100 100 58 85 72 100 6 54 99 95 8 5 5 5 5 2 5 5 5 6 73 98 91 100
5 5 5 5 5 5 5 19 71 93 6 5 0 0 0 0 1 5 100 100 100 100 93 84 83 61 92 19 2 15 32 13 60 36 70 10 5 71 59 56 39 5 6
5 5 5 5 62 94 100 62 84 13 1 0 0 0 0 4 21 82 94 100 93 100 64 36 30 81 7 4 5 5 12 63 68 26 49 50 16 20 100 100 76 9 7
59 52 74 94 94 50 5 5 5 5 0 0 2 5 0 5 21 16 13 46 98 97 7 5 5 5 5 5 97 54 93 77 30 88 100 99 82 100 99 100 64 89 24
89 18 5 38 5 5 5 5 3 5 4 5 4 0 5 4 13 93 72 100 96 6 5 5 5 5 5 5 66 87 100 100 98 100 100 100 100 100 100 97 93 82 52
9 5 5 5 10 5 5 5 4 1 5 5 0 0 3 13 75 100 99 48 5 5 5 5 5 5 5 2 16 71 74 98 100 100 100 100 100 100 100 100 100 100 100
5 5 5 6 5 5 5 5 5 3 0 0 3 0 5 5 14 10 21 52 5 5 5 5 5 5 5 5 5 5 30 27 94 100 100 100 100 100 100 100 100 100 100
5 5 5 5 5 3 0 4 5 0 0 2 5 5 5 5 5 36 33 5 5 5 5 5 5 29 5 5 45 43 48 58 99 100 100 100 100 100 100 100 100 100 100
5 5 5 5 2 0 2 5 4 4 5 5 5 5 5 5 5 5 5 6 5 5 5 5 5 60 64 27 100 100 100 100 100 100 100 100 100 100 100 100 100 100 100
5 5 5 5 0 5 5 5 5 5 55 52 5 5 5 5 14 22 6 5 5 5 5 11 26 19 5 73 100 100 100 100 94 99 100 100 100 100 100 100 100 100 100

GFSMW_prec_cloud_024.txt.gz
Cloud_Cover
0 0 0 0 4 52 5 5 99 68 74 90 5 5 12 8 32 9 5 5 57 93 81 79 43 5 4 0 4 1 0 0 3 5 5 6 78 94 100 100 93 53 7
0 0 1 2 1 31 11 1 2 44 70 30 100 100 100 84 12 5 5 86 99 100 67 5 20 5 1 3 2 0 0 3 4 2 2 8 32 27 8 10 13 40 83
72 16 7 18 72 93 17 2 5 5 92 71 44 70 73 22 94 71 47 79 53 10 4 2 5 2 0 1 0 0 0 11 22 47 37 18 9 15 85 94 28 11 18
80 12 5 20 61 0 0 5 67 20 5 5 5 5 14 73 85 98 11 11 5 5 3 0 2 4 4 5 2 28 12 21 12 6 19 76 96 81 13 20 84 12 5
100 100 100 100 94 0 0 0 0 0 0 0 5 75 100 100 100 98 100 100 100 100 100 96 93 52 7 5 1 2 0 19 8 27 67 12 9 30 63 63 17 13 3
72 89 100 59 5 5 5 0 0 0 0 2 36 95 88 75 91 86 61 40 13 12 5 4 0 0 2 5 5 5 33 11 5 5 18 67 99 100 100 93 100 100 19
70 10 5 76 38 4 5 5 3 4 28 15 7 5 5 18 30 41 5 5 5 5 5 5 5 1 1 6 78 6 5 5 5 5 13 14 97 100 100 98 97 88 6
100 92 5 5 5 5 4 4 24 97 84 37 66 14 5 5 6 10 22 5 5 1 0 3 0 0 0 0 0 0 3 5 5 5 60 70 84 100 100 100 100 93 50
5 5 5 5 5 19 99 48 31 62 38 5 5 5 5 5 5 5 4 0 0 0 0 0 0 0 0 0 0 0 1 5 5 5 4 74 100 100 90 99 100 100 100
23 11 13 10 21 84 82 5 5 5 3 5 5 11 7 5 5 3 3 5 4 1 0 2 0 0 0 0 4 3 2 2 5 3 3 5 17 48 44 6 36 100 100
100 100 100 100 100 33 5 5 5 1 4 8 13 5 3 1 0 5 5 5 10 5 10 68 100 78 11 24 0 0 0 3 5 18 70 47 77 76 92 6 4 5 67
64 30 95 100 6 4 5 5 5 5 14 5 4 0 4 4 5 80 6 2 5 5 48 100 100 100 100 100 6 3 5 55 80 76 36 54 8 5 2 0 0 0 51
56 100 55 5 5 5 9 58 58 40 5 5 5 5 5 67 57 10 10 18 100 99 100 100 100 100 100 100 77 0 5 5 5 2 0 0 0 0 0 0 3 0 1
41 12 5 5 5 10 37 38 6 5 5 5 50 99 100 91 100 82 64 83 92 91 100 100 100 100 100 98 0 5 5 5 5 5 0 1 0 5 5 19 50 84 28
94 81 92 45 5 56 21 5 5 5 59 100 100 100 100 100 50 2 59 5 6 46 100 100 100 100 100 96 5 5 5 5 4 4 3 3 1 5 6 100 99 99 64
100 81 5 5 5 5 5 5 12 100 100 54 40 32 27 0 0 0 0 0 46 98 100 100 88 100 100 86 5 5 5 5 5 5 5 5 5 5 5 5 5 96 100
6 5 5 5 5 5 5 5 29 73 11 5 1 0 0 0 0 0 4 100 100 100 100 100 98 95 99 43 5 5 5 73 54 19 5 5 5 5 5 28 36 21 19
5 5 14 51 5 16 32 51 5 6 5 5 0 0 0 0 1 6 80 100 99 59 58 95 80 85 17 4 7 10 5 6 5 5 5 5 48 44 66 75 97 100 100
42 19 16 71 9 7 11 5 5 5 3 0 0 0 0 0 0 23 58 56 8 63 82 100 50 5 5 6 50 58 11 5 5 5 5 89 98 100 100 93 90 94 100
5 58 58 6 8 24 5 5 5 1 0 5 5 5 5 0 5 5 96 99 34 88 99 6 5 5 5 2 28 71 72 36 68 63 92 100 100 100 100 100 100 99 100
96 69 57 65 24 5 5 5 3 5 5 3 4 5 0 0 5 56 78 41 21 13 79 13 5 5 4 4 5 83 100 99 91 67 100 100 100 100 100 100 100 100 100
90 84 66 5 5 5 2 4 3 0 2 5 5 4 0 3 5 5 19 75 98 99 74 17 5 5 5 0 5 49 100 99 96 99 98 100 100 100 100 100 100 100 100
78 13 6 7 6 0 5 0 1 5 5 5 5 5 5 5 5 67 89 100 67 8 5 5 30 6 5 5 5 5 20 14 94 98 100 100 100 100 100 100 100 100 100
46 74 39 31 5 5 5 4 5 5 57 5 5 5 5 5 5 5 5 5 6 15 5 5 5 53 5 5 11 74 37 72 86 23 86 100 100 100 100 100 100 100 100
70 52 19 10 5 5 5 40 67 58 85 82 54 38 5 5 5 30 70 49 7 5 5 5 17 54 66 15 99 100 98 99 82 7 49 83 100 100 100 100 100 100 100
44 30 29 5 5 5 24 89 89 100 100 96 94 66 5 7 18 95 99 64 5 5 5 5 41 20 18 66 100 100 90 77 37 30 78 74 94 100 100 100 100 100 100

GFSMW_prec_cloud_027.txt.gz
Cloud_Cover
0 4 0 0 1 5 9 61 98 27 52 92 98 69 5 5 5 5 60 72 98 98 98 79 57 56 27 4 0 0 0 0 0 0 0 1 5 5 23 6 5 5 5
9 82 6 30 56 67 100 9 98 100 98 74 6 5 5 11 58 22 13 76 49 9 4 4 5 5 2 0 0 0 0 0 5 10 7 5 7 6 5 5 5 15 8
5 10 41 100 100 92 9 17 14 4 1 2 5 49 34 40 12 5 5 5 5 5 0 0 0 0 0 0 0 1 0 11 0 0 12 22 5 11 10 2 2 1 4
5 59 98 68 89 48 5 5 5 5 4 5 85 99 18 9 5 5 5 5 5 5 3 0 0 0 0 0 0 0 0 4 6 5 5 5 9 66 59 6 0 0 0
100 55 71 67 53 66 12 8 5 3 5 12 89 100 100 100 100 88 91 100 100 98 32 14 9 5 0 0 0 0 5 5 4 5 6 19 75 52 93 100 100 99 5
100 99 100 97 100 100 93 27 21 8 20 91 100 100 100 100 100 100 100 100 100 97 47 4 0 0 0 0 0 0 0 0 0 3 10 60 98 100 100 100 71 92 5
60 100 92 100 100 100 77 100 46 30 100 100 94 72 35 33 98 100 100 42 2 2 0 1 0 0 0 0 0 0 0 0 0 0 5 23 30 61 91 100 100 100 90
97 100 100 92 59 27 21 5 8 92 71 11 69 94 88 83 57 9 5 5 5 0 0 1 5 5 5 5 36 4 0 0 0 0 0 20 12 5 68 100 100 99 66
4 0 0 0 2 5 6 24 7 5 5 12 5 4 3 4 5 5 5 5 2 0 1 5 44 59 100 100 99 67 6 4 0 3 0 0 0 5 11 55 42 98 93
2 4 5 5 5 15 75 34 5 5 5 5 5 5 5 5 5 5 2 2 4 5 24 100 92 95 62 100 87 91 97 82 7 39 0 3 5 12 5 49 93 98 90
5 27 26 86 53 94 71 35 5 16 7 5 5 5 5 5 3 5 5 5 5 46 71 48 99 100 98 100 97 100 100 100 100 100 5 5 14 5 5 5 5 5 5
69 85 95 91 87 88 91 75 99 37 5 5 4 3 5 5 5 5 5 87 68 88 100 100 85 100 100 100 100 100 100 100 92 6 5 5 5 0 5 5 5 5 4
5 5 57 100 100 93 94 68 97 5 5 5 5 5 1 1 11 23 5 0 0 0 0 3 68 89 100 100 91 72 98 74 15 32 8 5 3 5 5 5 5 11 74
5 19 88 91 93 100 97 57 5 5 5 5 5 1 5 5 7 0 0 0 0 0 7 76 60 100 94 100 100 100 98 38 88 54 5 5 5 5 5 5 4 73 100
61 93 68 98 93 20 5 5 5 5 5 5 1 0 5 5 0 0 0 0 3 46 96 100 100 100 99 100 100 79 14 5 5 5 5 5 16 91 70 55 23 6 75
98 80 54 62 37 5 5 5 5 5 5 5 5 5 5 0 0 0 0 5 70 94 100 100 87 5 38 95 50 5 5 5 79 93 56 5 5 5 11 6 78 97 95
100 86 14 5 5 5 5 5 5 5 5 14 7 5 5 2 0 0 18 98 88 17 68 11 5 35 86 5 9 8 5 8 22 7 15 5 5 5 5 89 100 87 94
44 43 12 24 5 10 5 5 18 34 38 8 5 5 5 0 5 6 32 100 100 37 5 44 90 68 6 6 5 18 5 5 5 5 5 18 55 47 99 100 100 100 94
100 91 24 6 50 43 58 94 68 47 7 25 5 5 0 5 5 5 5 72 53 46 34 74 84 75 5 3 9 52 8 5 5 5 5 99 99 96 100 100 100 100 100
100 96 42 20 82 96 100 96 63 49 54 4 0 0 0 5 4 5 5 17 70 80 88 70 83 79 5 2 5 63 40 27 84 5 5 65 99 100 100 100 100 100 100
84 12 45 88 100 100 85 95 70 7 0 0 0 1 22 85 0 3 5 5 5 14 80 100 53 5 4 4 5 64 33 82 53 82 73 74 99 100 100 100 100 100 100
98 79 83 77 98 92 65 56 5 0 4 5 5 45 100 12 5 5 5 22 93 100 96 13 5 5 5 5 5 76 98 85 99 100 82 99 100 100 100 100 100 100 100
36 59 44 62 69 72 40 5 5 5 5 5 64 100 46 5 5 5 8 80 90 64 10 29 57 5 5 5 5 7 98 11 42 5 57 100 100 100 100 100 100 100 100
79 61 94 32 99 63 5 5 5 5 5 83 100 100 87 27 5 5 11 68 88 51 5 27 49 56 5 5 6 95 64 8 38 5 5 5 61 100 100 100 100 100 100
100 100 84 76 25 5 5 5 5 8 33 100 100 97 99 93 5 83 100 100 98 70 24 10 14 70 72 18 80 100 96 46 20 6 49 35 55 80 100 100 100 100 100
97 99 96 43 5 6 14 27 5 42 100 100 100 100 100 100 54 97 100 100 100 91 100 64 30 49 18 16 100 93 60 39 4 25 89 95 86 90 100 100 100 100 100

GFSMW_prec_cloud_030.txt.gz
Cloud_Cover
78 76 86 90 6 49 86 99 100 100 100 100 100 100 93 86 5 5 5 7 75 30 5 4 0 0 0 0 0 0 0 0 0 0 2 1 5 5 49 29 5 5 5
7 5 17 9 8 65 91 100 75 59 95 87 18 4 5 5 5 4 2 1 0 0 0 0 0 0 0 0 0 0 0 0 6 19 9 54 82 44 6 6 5 5 5
5 25 43 93 100 76 48 69 97 100 35 5 5 5 0 0 1 2 2 0 0 0 1 0 0 0 0 0 0 0 0 0 0 0 7 9 9 71 5 0 1 1 0
5 5 5 78 26 33 100 100 71 5 28 4 1 4 5 5 5 5 5 2 3 5 3 4 4 0 0 0 0 0 0 0 0 0 0 2 64 100 58 62 51 4 0
87 5 56 6 33 100 90 56 57 65 55 98 18 7 5 5 5 0 5 5 6 5 10 7 5 2 5 5 0 1 0 0 0 2 8 21 5 5 6 17 66 82 11
5 20 29 58 95 100 100 100 100 96 69 88 68 95 83 5 5 38 78 76 83 97 25 5 5 5 3 1 4 2 4 2 0 1 9 52 100 100 100 100 71 32 5
4 10 64 86 100 100 67 96 100 100 97 39 5 5 5 15 65 74 66 42 35 37 5 5 5 5 5 5 5 14 5 5 5 5 17 7 45 72 47 100 100 100 5
7 80 78 93 5 5 69 32 56 38 5 5 5 46 63 5 5 5 5 5 5 5 5 5 4 5 5 10 15 8 70 86 5 39 56 5 13 6 9 22 88 24 5
12 27 2 0 5 5 5 6 61 88 95 5 5 5 5 5 5 5 5 23 43 5 5 5 6 84 100 98 89 100 99 93 97 99 87 25 30 5 75 93 98 68 6
4 0 4 5 5 5 9 95 87 20 5 5 5 5 5 5 6 30 44 13 5 5 5 58 38 5 34 24 98 89 100 100 100 51 5 26 5 4 5 5 5 5 5
0 4 5 7 10 7 51 23 5 5 93 99 5 5 5 5 5 5 4 5 5 2 0 0 1 5 2 100 98 74 94 97 93 61 42 79 5 5 5 5 5 5 5
5 8 76 98 97 96 19 22 84 100 74 5 5 5 5 5 5 5 2 0 0 0 0 1 40 88 16 82 100 100 100 100 100 88 6 5 5 5 4 3 5 5 5
5 5 19 100 100 90 58 92 100 57 84 99 5 5 5 5 1 0 2 5 5 1 0 15 100 100 99 72 100 100 98 61 62 5 5 5 5 5 5 5 5 5 5
5 5 84 97 75 69 100 77 90 99 93 5 5 5 5 4 5 5 5 5 0 2 5 43 90 82 96 90 78 37 19 5 5 5 5 5 43 72 57 43 93 79 73
5 5 27 23 74 100 63 14 6 5 5 5 5 7 14 18 31 7 5 5 5 81 70 70 78 76 12 5 5 13 12 5 5 10 34 16 38 98 100 96 98 100 96
15 15 85 100 98 100 96 5 5 8 24 35 58 87 99 100 76 77 5 5 8 77 35 24 5 5 5 7 5 10 5 5 5 10 26 5 5 5 91 74 100 100 100
38 100 100 100 100 100 50 35 76 97 95 83 98 100 100 100 43 5 24 5 57 45 25 5 5 5 44 5 5 7 5 5 5 5 5 11 48 27 38 17 77 100 100
93 100 96 94 100 100 90 100 100 100 97 100 100 100 100 80 5 4 25 20 37 93 46 10 5 51 6 5 5 5 5 5 5 5 8 51 59 37 100 94 100 100 100
100 94 100 98 100 100 100 100 100 100 100 100 100 97 79 5 2 5 0 5 29 86 84 10 53 5 60 4 5 5 5 5 5 5 5 98 100 79 100 100 100 100 100
86 100 100 100 100 100 100 100 100 100 100 100 93 21 5 5 5 0 22 5 33 5 14 93 48 93 5 5 5 52 60 34 44 10 16 31 100 100 100 100 100 100 100
100 100 100 100 100 100 100 100 100 100 100 90 10 5 5 5 5 24 7 5 5 6 52 87 97 9 5 5 5 94 100 74 84 74 46 51 98 100 100 100 100 100 100
100 100 100 100 100 100 100 100 100 68 86 19 5 5 79 77 8 17 5 7 70 99 100 100 18 5 5 5 5 89 100 93 78 8 5 77 100 100 100 100 100 100 100
100 100 100 100 100 100 100 100 58 84 26 48 5 5 100 94 60 50 11 5 77 100 97 66 72 42 5 5 5 6 90 11 5 5 10 40 8 7 13 100 100 100 100
100 100 100 100 100 99 100 94 56 35 80 59 5 29 83 99 98 58 5 22 98 99 73 30 53 57 5 5 5 85 70 5 5 5 5 8 5 5 6 68 99 100 100
100 100 100 100 100 100 90 99 97 92 23 5 6 83 100 97 100 67 30 99 100 84 75 90 76 81 90 20 17 99 81 5 5 28 37 16 14 5 75 82 90 100 100
100 100 100 96 100 100 100 37 60 39 14 56 27 100 100 98 100 65 50 99 100 81 100 100 96 70 16 5 65 90 20 5 2 5 79 100 100 88 96 100 89 100 100

GFSMW_prec_cloud_033.txt.gz
Cloud_Cover
69 73 49 77 100 96 27 59 100 94 100 100 100 100 100 100 100 100 80 36 9 0 0 0 0 0 0 0 0 0 1 2 0 0 0 0 0 0 1 5 6 14 24
74 69 23 59 43 49 41 100 99 80 100 97 44 61 62 36 5 0 0 0 0 0 0 0 0 0 0 0 0 0 0 0 0 0 0 0 0 5 1 5 5 5 5
5 30 36 4 50 46 28 13 9 6 5 5 5 5 5 5 66 56 6 5 0 0 1 0 3 11 37 33 5 5 2 0 0 0 1 0 0 5 3 0 4 5 5
0 4 5 5 13 55 5 5 9 5 31 69 67 5 42 56 8 11 4 2 5 5 23 79 96 66 7 5 0 0 0 0 0 0 5 3 5 40 5 42 98 90 25
0 3 6 9 66 14 12 34 74 38 23 92 63 91 96 5 2 0 3 5 8 87 84 5 2 0 0 0 0 2 5 5 13 75 5 5 5 72 99 9 36 31 46
0 3 5 52 38 50 54 80 70 97 82 11 34 15 5 4 5 4 3 5 9 1 1 0 0 0 2 4 12 73 86 89 25 70 54 5 5 5 83 94 56 5 11
0 5 92 60 70 91 77 5 25 32 58 64 7 7 5 5 5 3 0 2 1 0 3 5 12 5 5 6 47 5 98 98 5 6 24 6 51 5 28 92 99 68 5
4 22 77 100 100 10 5 5 5 6 10 97 78 5 48 67 5 0 0 2 5 5 5 5 5 5 6 6 87 28 10 72 22 17 24 96 97 5 5 5 79 19 5
5 12 61 5 0 0 4 5 5 19 99 100 69 65 91 63 5 5 5 5 9 51 6 5 5 1 0 0 5 5 7 57 98 5 5 5 5 5 3 5 7 68 66
5 5 3 0 2 5 5 5 61 100 100 80 92 100 76 6 12 10 50 26 17 15 5 4 3 4 1 9 87 85 72 94 26 31 5 13 28 5 5 5 48 76 77
0 0 0 0 5 5 8 41 100 95 63 85 89 17 73 63 7 5 5 5 5 5 4 5 5 2 5 47 98 6 5 55 95 82 71 5 5 22 71 100 66 19 22
4 0 2 5 7 13 74 100 63 99 97 85 7 15 5 5 5 5 5 5 5 5 5 5 5 5 32 90 97 82 100 94 82 81 78 5 42 69 89 100 100 100 100
5 5 5 90 77 86 100 78 70 100 98 5 8 5 5 21 5 10 76 7 10 11 5 33 84 87 64 89 89 89 34 81 9 70 5 5 71 84 95 100 100 100 100
5 5 11 74 100 100 93 93 100 79 67 20 5 5 5 44 99 100 96 99 96 14 91 69 84 75 86 42 5 5 5 5 5 5 5 30 69 74 97 100 100 100 100
5 8 5 91 100 92 86 100 57 20 5 5 6 24 99 98 100 100 100 83 7 8 39 98 73 11 5 5 5 5 5 5 5 5 3 5 12 58 91 100 100 100 100
5 5 77 100 88 100 100 100 100 60 59 19 41 99 100 100 100 100 53 55 16 10 44 30 5 5 5 5 5 5 5 5 0 0 5 5 5 70 96 100 93 92 100
53 64 93 100 88 100 99 96 80 95 100 90 100 100 100 100 100 22 50 29 37 11 47 30 40 5 5 5 5 5 5 5 4 5 7 59 99 100 100 100 93 100 99
78 96 100 100 100 76 86 90 90 100 100 100 100 100 100 100 78 34 5 5 8 82 97 96 78 10 5 5 5 5 5 5 5 16 85 100 100 100 100 100 100 100 100
51 100 100 100 100 66 62 89 99 100 100 100 100 100 100 98 7 25 6 2 2 94 70 28 8 79 28 5 5 5 20 65 42 98 100 100 100 100 100 100 100 100 100
100 100 100 100 100 100 100 100 100 100 100 100 100 97 72 45 41 100 5 2 32 99 28 82 93 72 58 5 7 5 87 100 100 100 100 100 100 100 100 100 100 100 100
100 100 100 100 100 100 100 100 100 100 100 94 14 6 85 86 100 82 5 5 5 5 15 78 66 68 5 24 10 5 98 99 100 100 78 43 100 100 100 99 100 100 100
100 100 100 100 100 100 100 100 100 98 81 24 10 99 100 100 95 5 5 5 5 8 83 91 71 6 5 5 36 5 88 94 100 100 44 42 83 81 42 81 100 98 100
100 100 100 100 100 100 99 100 91 100 76 32 100 100 100 85 5 39 5 5 5 54 92 59 19 29 51 22 33 5 6 90 54 88 6 5 5 5 5 18 95 88 100
100 100 100 100 100 99 100 100 90 100 98 100 100 100 84 5 74 88 64 5 5 57 77 78 98 100 69 80 20 28 95 87 52 7 3 4 5 5 16 5 54 83 100
100 100 99 100 100 100 100 96 100 100 100 100 100 56 14 6 82 70 90 49 18 89 97 99 95 97 95 77 5 40 100 95 60 4 5 5 5 1 4 5 5 90 100
100 100 100 100 100 100 100 100 100 100 100 100 64 41 66 48 98 71 74 25 9 20 60 88 97 72 53 14 28 54 91 5 5 5 5 5 5 5 2 5 5 31 96

GFSMW_prec_cloud_036.txt.gz
Cloud_Cover
37 100 99 77 53 47 99 68 94 100 100 100 100 100 100 100 100 100 100 100 100 100 100 100 5 0 0 0 0 0 1 4 1 0 0 1 2 5 28 59 82 87 94
82 79 77 49 40 80 82 59 50 100 100 100 100 82 100 90 100 100 100 91 56 75 42 2 0 0 0 3 5 5 5 4 3 5 0 0 0 0 93 3 5 3 4
98 80 56 45 93 94 51 29 93 29 58 48 97 100 26 84 92 94 93 76 14 1 3 0 0 5 6 36 5 5 1 3 0 14 13 5 2 4 7 78 71 5 5
2 0 2 7 9 71 61 42 5 37 99 68 12 5 5 5 5 5 5 4 5 1 0 0 5 5 5 5 2 3 5 5 5 26 90 97 79 96 78 96 94 98 16
0 3 5 5 70 5 28 5 63 26 6 72 42 38 5 5 5 5 6 19 10 4 0 0 0 2 5 5 0 3 16 42 58 78 100 100 100 100 100 100 98 90 100
1 5 5 5 5 5 5 10 8 5 14 5 5 5 11 6 5 11 98 85 32 5 5 5 3 2 5 5 12 47 24 58 82 96 93 100 100 100 100 100 92 97 79
0 4 5 4 5 5 5 5 5 5 5 5 5 10 31 9 73 99 93 21 5 5 5 5 5 5 5 40 6 86 60 48 61 75 86 100 100 100 100 100 100 96 60
0 4 0 5 5 5 5 5 0 5 5 7 37 98 97 77 79 25 5 5 5 5 5 5 5 5 5 5 5 34 44 86 32 90 87 94 100 100 100 100 100 99 26
0 0 5 5 6 5 3 2 5 5 5 12 67 98 91 59 67 6 5 13 7 5 5 5 5 5 5 5 6 40 13 86 94 69 67 100 100 100 100 100 100 90 87
5 4 5 20 16 0 2 5 5 5 29 100 91 45 34 92 70 73 88 27 5 5 5 5 44 12 5 6 71 16 27 100 83 92 100 100 100 100 100 100 100 100 100
5 5 5 5 5 5 5 48 65 81 88 100 100 86 90 76 75 32 5 5 5 5 5 8 5 5 9 79 80 35 83 100 90 96 100 100 100 100 100 100 100 100 100
5 5 5 5 5 5 20 23 86 62 100 100 100 94 20 9 5 5 5 5 5 38 87 17 5 26 100 100 84 43 98 95 99 100 100 100 100 100 100 100 100 100 100
5 5 5 5 5 14 89 45 72 100 60 91 94 28 5 5 5 5 5 18 87 99 7 6 80 100 99 95 91 100 100 93 85 84 97 65 76 44 21 80 100 100 100
5 5 5 5 5 80 35 56 100 65 70 81 13 13 19 5 5 49 82 100 98 26 24 35 42 94 94 95 69 33 95 93 73 33 8 5 5 5 5 34 99 100 100
5 5 5 5 5 40 15 79 44 92 64 85 53 28 16 36 87 100 100 100 55 26 14 44 70 54 37 11 20 42 33 67 5 5 5 4 5 5 52 85 95 100 100
5 5 5 5 5 13 65 80 99 22 100 63 98 60 93 100 100 100 95 86 19 64 83 94 97 95 92 5 5 3 5 5 5 5 5 5 10 100 52 100 95 81 100
5 5 5 5 15 77 100 100 85 100 81 100 89 99 100 100 100 98 52 46 10 77 100 100 97 100 100 5 5 5 5 5 5 5 5 18 78 100 100 100 83 99 100
75 12 6 32 93 100 100 100 100 94 100 99 99 96 100 100 94 99 86 18 77 70 100 100 100 88 98 5 5 5 5 5 52 18 47 95 100 100 86 100 100 100 100
6 35 60 100 100 100 100 100 100 100 100 100 100 100 94 96 100 98 100 94 100 80 98 96 100 100 100 10 5 5 51 98 96 94 98 93 82 99 70 100 100 100 100
41 44 72 99 99 99 100 100 100 100 100 100 100 100 100 100 100 100 100 100 97 85 92 100 100 89 77 59 5 5 32 98 99 98 100 100 39 9 100 100 100 100 100
8 41 95 100 100 98 100 100 100 100 100 100 100 100 100 100 100 100 100 98 98 93 100 74 78 91 88 89 5 5 17 94 98 99 98 100 17 18 94 67 100 96 100
80 93 98 100 100 100 100 100 100 100 100 100 100 100 100 100 100 100 100 99 98 98 100 100 81 100 96 93 43 5 5 20 98 96 99 81 5 5 5 25 8 59 98
94 98 100 100 100 100 100 100 100 100 100 100 100 100 100 100 100 100 86 100 99 100 100 100 100 100 100 100 99 15 5 55 94 100 13 5 5 5 2 4 5 22 76
99 100 100 100 100 100 100 100 100 100 100 100 100 100 100 100 100 98 100 100 100 100 100 100 100 100 100 100 100 100 100 100 100 99 31 20 4 2 2 15 5 5 36
100 100 100 100 100 100 100 100 100 100 100 100 100 100 100 93 85 93 100 100 100 100 99 100 100 100 100 100 100 51 94 100 85 7 96 100 93 18 5 5 5 5 5
100 100 100 100 100 100 100 100 100 100 100 100 100 52 100 94 100 98 100 100 90 23 5 5 6 30 86 99 59 7 26 94 5 57 99 100 100 100 39 5 5 5 5

GFSMW_prec_cloud_039.txt.gz
Cloud_Cover
100 100 100 77 73 40 45 100 100 64 71 100 100 100 100 100 100 100 100 100 99 76 100 72 94 100 100 84 98 4 0 1 0 0 0 0 4 5 5 37 66 5 21
98 88 87 62 70 81 82 82 99 100 72 15 48 100 100 47 67 62 86 100 94 74 70 85 5 1 0 0 0 4 5 5 5 5 5 5 4 2 5 80 80 7 50
28 26 23 20 68 86 92 100 59 17 31 5 5 58 97 87 49 42 91 100 65 8 5 5 5 4 0 1 5 5 5 5 5 21 12 33 52 51 23 16 36 100 88
6 12 20 75 50 100 99 8 5 20 11 8 5 12 54 77 23 14 37 48 5 5 26 5 4 2 5 5 5 7 4 5 50 74 66 23 77 99 68 80 36 4 57
9 30 45 84 66 5 5 16 34 38 5 5 5 5 23 42 50 67 25 6 11 11 5 5 5 2 5 5 5 2 98 90 100 51 70 87 99 92 81 95 100 98 91
12 2 17 26 4 5 6 14 12 30 4 4 5 13 47 76 98 57 49 64 65 25 5 5 5 5 5 5 5 5 5 5 69 35 99 99 87 98 99 83 79 60 43
0 0 0 0 1 5 4 5 5 15 14 29 54 34 14 77 77 80 84 81 73 68 29 5 4 5 5 5 5 5 27 5 98 96 82 31 98 100 97 87 41 64 78
0 0 0 0 0 0 2 5 16 51 91 61 31 5 5 44 100 23 82 81 87 21 5 5 5 5 5 5 5 5 52 91 45 100 100 43 85 100 100 97 98 33 69
0 0 0 2 4 0 6 6 88 100 74 7 5 22 16 100 84 39 28 85 15 5 5 5 5 5 5 5 5 5 97 6 48 69 78 15 89 97 71 100 100 28 21
1 5 5 1 0 2 35 38 34 50 5 5 6 48 100 100 82 56 90 5 14 5 5 5 5 5 5 5 5 21 70 56 8 91 100 92 97 96 99 99 89 100 66
5 5 5 5 6 44 53 49 9 5 5 5 25 86 100 35 9 77 5 10 5 5 5 5 5 5 5 5 5 81 74 94 100 99 100 92 100 83 100 100 100 100 96
5 9 5 19 41 37 51 21 8 76 24 55 100 100 98 18 6 5 5 5 5 5 5 5 5 5 5 6 33 91 98 95 100 89 99 100 99 51 59 41 10 8 13
5 5 16 22 14 5 5 5 16 6 67 62 100 90 46 10 12 9 53 22 5 5 5 5 5 46 88 97 99 64 55 93 100 100 94 88 41 5 5 43 5 10 62
5 5 39 73 70 5 16 31 87 13 96 98 100 59 15 55 6 88 34 5 5 5 42 28 64 73 97 100 100 100 96 97 100 86 26 36 19 5 5 5 26 75 100
5 48 100 100 7 5 50 36 6 80 77 100 94 84 78 79 99 78 60 65 50 67 89 100 90 100 100 98 14 16 6 6 7 6 42 26 5 5 4 14 98 100 100
5 10 100 7 4 1 5 51 79 94 66 96 97 83 93 100 83 94 96 81 99 100 100 100 100 100 97 78 5 5 5 5 5 53 22 5 30 95 22 86 68 44 100
5 39 97 5 5 5 34 50 96 51 100 100 99 100 100 94 100 100 92 100 100 100 100 100 100 100 100 5 5 5 5 5 53 78 70 46 42 100 84 86 92 100 100
37 96 5 5 16 42 32 79 82 100 100 100 100 96 100 100 100 100 100 100 100 100 100 100 100 100 100 5 5 5 4 42 95 99 93 84 88 100 5 7 96 100 100
40 5 5 8 8 66 70 100 100 100 100 100 100 100 100 100 100 100 100 100 100 100 100 100 98 100 100 29 5 5 5 79 95 91 92 70 82 65 3 5 100 99 100
21 5 7 41 64 63 88 96 78 100 100 100 100 100 100 100 100 100 100 100 100 100 100 79 91 100 99 71 85 5 6 84 97 93 92 95 5 5 5 17 88 100 96
10 91 60 19 15 78 92 100 100 100 100 100 100 100 100 100 100 100 100 100 100 100 15 63 100 100 100 99 80 6 5 80 99 97 99 100 42 5 5 21 64 86 5
87 67 68 92 99 99 100 100 100 100 100 100 100 100 100 100 100 100 100 100 100 99 93 99 96 96 95 98 72 23 5 5 58 99 100 96 5 5 5 5 5 1 25
88 88 100 83 63 100 100 100 100 100 100 100 100 100 100 100 100 100 100 100 100 98 99 98 100 97 94 99 69 69 20 5 36 100 74 6 5 5 5 5 5 5 95
93 25 62 100 100 100 100 100 100 100 100 100 100 100 100 100 100 100 100 100 92 98 100 97 100 100 100 96 100 98 58 64 81 100 98 27 11 26 47 83 100 100 97
80 100 100 100 100 100 100 100 100 100 100 100 100 100 100 100 100 100 97 99 88 92 99 100 99 100 79 99 86 100 96 100 99 35 48 99 97 100 100 100 100 100 100
100 100 100 100 100 100 100 100 100 100 100 100 100 100 100 100 100 100 83 86 99 99 76 48 16 5 5 5 13 28 5 5 48 64 98 100 100 100 100 100 100 100 100

GFSMW_prec_cloud_042.txt.gz
Cloud_Cover
69 94 100 100 100 100 100 100 100 100 100 100 30 5 5 5 5 100 82 93 100 100 100 100 100 100 80 32 0 0 0 0 0 0 0 5 5 2 0 0 0 3 28
100 100 100 99 100 100 84 91 86 82 7 5 16 5 5 3 2 5 7 89 100 100 100 49 6 5 5 3 0 0 0 0 1 0 5 5 4 2 3 0 0 5 5
100 100 100 100 100 80 98 16 27 32 14 57 5 4 1 3 2 5 5 5 27 6 5 5 5 5 5 4 0 0 3 4 3 0 4 5 5 4 0 0 0 0 2
90 9 65 49 96 44 89 10 66 5 14 6 4 3 5 5 5 5 28 5 5 5 5 5 5 5 3 0 0 0 0 0 4 3 5 5 6 5 5 2 1 0 0
50 64 26 98 100 100 5 46 4 39 5 5 0 4 42 100 100 98 60 98 98 76 6 5 5 5 5 5 5 5 5 5 5 5 5 10 84 8 54 7 5 5 5
4 94 97 100 80 100 6 20 0 100 12 2 3 0 5 68 50 15 33 100 99 27 10 5 5 3 2 0 0 0 0 1 1 5 5 51 99 99 89 86 5 5 0
16 25 95 67 55 17 8 100 64 100 7 5 2 0 2 8 7 54 64 93 32 5 26 5 3 4 5 5 0 0 0 5 5 5 8 100 100 98 94 97 18 5 1
0 10 0 40 83 62 18 2 3 38 2 5 30 33 5 5 68 100 100 100 53 5 5 5 5 5 5 5 0 0 0 1 42 78 42 88 100 99 100 61 98 5 4
0 11 9 50 0 0 0 0 0 0 5 84 98 20 5 5 49 74 83 100 95 5 5 5 5 5 5 5 5 5 5 5 33 29 5 5 66 100 97 47 29 68 5
0 0 0 0 0 0 0 0 41 39 59 14 4 5 5 68 100 100 100 92 69 22 11 5 22 48 11 5 5 5 5 7 9 5 22 93 96 88 94 31 4 89 100
0 0 0 0 0 1 37 5 56 100 59 5 5 30 64 100 100 100 100 100 45 15 5 79 100 42 9 6 57 38 5 44 14 23 68 66 98 96 92 87 100 71 18
0 0 0 0 3 89 100 99 100 100 67 5 5 66 99 100 100 100 100 48 18 62 100 100 98 48 48 99 100 78 5 23 79 5 76 27 99 25 8 3 0 2 3
1 4 46 53 76 94 100 100 100 100 44 5 84 100 100 100 100 100 40 34 100 100 100 97 97 99 84 54 90 6 70 100 20 37 84 54 3 0 5 5 5 1 4
2 6 98 100 100 100 100 100 100 94 17 67 100 100 100 100 91 88 96 99 99 100 91 95 100 100 100 100 87 92 73 100 44 4 6 5 4 5 5 5 5 3 5
4 5 86 62 100 99 100 100 83 5 15 100 100 100 100 100 100 99 100 100 100 100 100 100 100 100 100 100 100 100 64 22 78 0 5 5 5 5 5 5 5 5 5
5 5 5 5 54 100 100 57 30 10 68 100 100 100 100 100 100 100 100 100 100 100 100 100 100 100 100 100 70 10 8 5 0 1 5 5 5 58 21 15 5 35 7
5 5 5 5 14 100 97 21 56 44 78 99 100 100 100 100 100 100 100 100 100 100 100 100 100 100 100 100 100 99 72 96 0 5 8 5 20 5 5 3 0 0 5
6 5 5 5 83 99 100 99 81 79 86 100 100 100 100 100 100 100 100 100 100 100 100 100 100 100 100 100 100 100 37 5 0 32 51 5 56 5 5 0 0 1 5
5 5 16 100 100 62 77 52 72 99 100 100 100 100 100 100 100 100 100 100 100 100 100 100 100 100 100 99 100 80 81 5 4 5 5 73 67 5 5 5 4 5 4
5 29 100 95 5 5 5 8 80 94 100 100 100 100 100 100 100 100 100 100 100 100 100 100 100 100 77 45 95 64 6 5 5 5 16 5 5 5 5 4 5 5 5
83 100 80 10 9 21 64 87 97 100 100 100 100 100 100 100 100 100 100 100 100 100 100 100 100 91 26 32 45 97 5 5 5 5 5 47 81 5 4 5 5 5 5
84 19 69 98 79 86 93 100 100 100 100 100 100 100 100 100 100 100 100 100 100 100 100 100 90 77 100 88 5 5 5 5 5 5 53 6 5 5 5 2 2 5 5
51 63 100 89 100 97 100 100 100 100 100 100 100 100 100 100 100 100 100 100 100 100 100 95 98 100 98 94 99 100 58 5 5 5 68 90 63 5 5 5 5 44 5
59 73 72 92 100 100 100 100 100 100 100 100 100 100 100 100 100 100 100 100 100 100 100 100 100 82 100 98 97 20 27 95 6 5 40 90 66 58 66 33 57 57 9
84 100 100 100 100 100 100 100 100 100 100 100 100 100 100 100 100 100 100 100 100 100 100 50 44 99 99 100 100 36 86 100 100 99 26 88 77 100 88 33 62 64 5
100 100 100 99 100 100 97 87 96 99 100 100 100 100 100 100 100 100 100 100 100 28 5 5 80 99 93 90 22 5 5 84 100 75 5 58 50 92 99 38 6 10 7

GFSMW_prec_cloud_045.txt.gz
Cloud_Cover
100 100 100 100 100 100 90 77 63 100 100 100 100 100 100 100 100 100 74 5 5 5 2 4 3 0 0 0 2 2 0 0 0 0 0 0 0 0 0 0 0 0 0
100 91 100 100 94 93 100 100 100 100 100 100 99 7 5 5 5 5 4 2 5 5 5 0 1 2 2 5 5 0 0 0 0 0 0 0 0 0 1 0 0 0 0
100 98 72 100 100 100 100 100 100 100 82 53 5 5 6 2 0 0 1 3 5 2 1 5 46 10 5 5 1 0 0 0 0 0 0 3 4 5 5 5 4 2 0
86 74 99 43 92 95 32 24 88 51 17 5 3 5 0 0 0 0 0 0 1 5 5 5 4 3 2 0 0 0 0 0 1 4 5 5 5 17 28 28 5 5 4
100 98 79 76 74 18 5 5 5 5 1 28 2 5 0 0 0 0 0 5 4 38 52 5 2 0 2 0 4 3 0 0 1 4 4 2 4 5 6 6 5 5 5
38 54 13 5 24 5 4 1 0 0 0 0 5 1 0 0 0 11 91 100 100 72 5 9 19 5 1 3 0 2 4 5 5 3 4 5 59 82 84 90 12 5 5
5 5 5 4 0 2 16 1 0 0 0 18 5 5 0 6 60 65 100 100 73 41 98 100 82 30 5 4 5 5 5 5 3 5 5 99 100 100 94 100 100 54 5
0 0 0 0 0 0 15 0 0 1 95 46 15 5 0 3 6 23 99 100 99 94 96 100 100 100 5 5 5 5 5 13 29 21 6 86 63 100 100 100 96 37 5
0 0 0 0 0 0 0 11 100 100 45 7 5 5 5 5 77 96 86 99 88 92 100 100 100 54 5 10 96 92 97 67 5 6 23 90 90 100 100 100 100 100 20
0 0 0 0 0 0 0 47 100 100 16 3 5 6 24 29 88 60 86 100 100 100 89 100 70 16 22 74 56 40 12 25 93 90 79 75 66 100 100 100 94 100 79
0 0 0 0 0 0 0 0 14 1 2 17 5 24 62 92 100 100 93 100 97 100 100 85 6 75 100 98 99 85 75 100 100 100 100 100 100 100 100 98 25 68 81
0 0 0 0 0 0 0 0 0 72 100 100 100 100 100 100 100 100 100 100 100 96 68 78 69 100 91 91 100 100 95 100 100 100 100 100 100 100 99 5 0 0 2
0 0 0 1 4 2 1 86 100 100 100 100 100 100 100 100 100 100 99 100 81 88 89 77 100 91 100 76 100 93 97 100 100 100 100 6 5 4 0 0 0 1 5
0 0 2 5 5 43 100 100 86 100 100 100 100 100 100 100 100 100 98 99 74 96 68 100 76 96 100 100 100 100 100 100 100 100 75 81 100 7 5 5 0 2 2
0 0 4 5 4 24 9 8 85 99 100 100 100 100 100 100 100 94 100 100 100 91 100 100 98 100 100 100 100 100 99 100 98 100 100 100 24 67 4 3 3 4 5
0 4 1 5 5 14 5 6 48 100 100 100 100 100 100 100 92 100 100 100 100 100 100 100 100 100 100 100 100 100 100 100 100 100 100 55 5 5 5 5 5 5 4
5 1 1 1 4 5 67 5 97 100 100 100 100 99 80 78 100 100 100 100 100 100 100 100 100 100 100 100 100 100 100 100 100 100 5 100 37 5 5 5 5 0 0
16 7 5 5 5 5 5 73 78 81 100 100 100 86 97 100 100 100 100 100 100 100 100 100 100 100 100 100 100 100 100 100 100 100 35 5 54 5 5 5 4 2 0
5 5 8 5 5 28 97 59 73 97 100 100 100 86 100 100 100 100 100 100 100 100 100 100 100 100 100 100 100 100 100 100 100 82 5 2 5 5 5 5 5 4 2
5 5 5 22 51 89 11 5 6 65 100 99 100 100 100 100 100 100 100 100 100 100 100 100 100 100 100 100 100 100 100 93 85 8 3 5 25 5 5 5 5 7 3
5 51 100 100 100 64 51 75 100 100 100 100 100 100 100 100 100 100 100 100 100 100 100 100 100 100 100 100 100 100 93 8 5 5 5 5 66 26 55 49 5 5 2
94 100 100 38 80 98 100 100 100 100 100 100 100 99 100 100 100 100 100 100 100 100 100 100 100 100 100 100 31 40 9 16 43 5 5 5 8 19 5 16 20 5 5
100 100 53 78 100 100 99 100 100 100 100 97 99 99 100 99 100 100 100 100 100 100 100 100 100 48 85 5 5 5 14 65 73 5 84 5 5 5 30 11 5 5 31
96 100 97 100 100 99 100 100 100 100 95 100 100 99 99 100 100 98 90 57 5 37 5 22 44 36 49 35 90 85 10 50 5 10 100 21 12 8 6 47 75 65 43
100 100 98 93 85 75 72 38 87 82 34 6 53 56 2 2 0 1 5 5 5 5 5 5 5 5 5 12 96 72 88 93 87 45 82 95 92 50 100 90 82 88 56
100 79 80 28 22 6 38 47 36 12 8 7 0 0 0 0 1 0 0 0 0 0 2 5 5 5 5 58 98 88 86 96 97 94 84 84 66 39 97 100 100 74 79

GFSMW_prec_cloud_048.txt.gz
Cloud_Cover
100 100 100 100 100 91 15 94 98 69 100 100 100 53 43 22 57 96 100 100 100 89 19 18 16 5 2 2 5 0 0 0 0 0 0 0 0 0 0 0 0 0 0
100 100 100 45 90 100 100 100 70 98 100 91 94 85 100 100 100 95 86 24 69 5 17 1 0 0 4 5 0 0 0 0 0 0 0 0 0 1 1 1 5 3 2
100 100 100 100 87 77 89 62 61 100 100 100 100 100 100 100 79 47 5 4 2 5 5 1 2 5 39 4 0 5 5 3 0 0 0 3 0 5 5 5 5 5 5
50 100 100 100 100 99 98 100 100 100 100 100 100 87 63 15 7 1 0 0 2 5 1 0 0 5 24 49 24 43 58 1 2 1 3 0 0 1 5 5 5 5 6
100 95 100 100 100 96 88 84 61 87 98 5 8 7 5 6 5 0 0 5 5 2 0 1 5 5 8 5 34 100 100 75 0 0 1 5 4 5 5 6 10 8 4
100 46 18 83 93 55 40 22 26 38 31 4 0 2 18 17 4 0 3 5 4 34 18 97 87 21 37 99 97 56 5 3 2 5 5 5 1 5 5 48 100 100 14
100 76 5 5 38 58 29 7 19 1 0 0 1 4 6 5 4 1 5 15 12 93 100 100 100 100 65 44 50 5 5 5 5 5 5 5 5 50 42 100 96 100 11
38 5 5 4 1 22 18 7 5 3 0 0 2 3 1 5 5 5 62 98 100 100 100 33 98 100 94 90 61 58 5 5 5 5 5 5 12 74 51 98 100 100 9
4 5 5 5 0 1 1 9 5 1 0 0 0 5 56 76 53 74 100 100 100 100 100 100 100 100 100 92 83 55 9 100 10 5 5 5 5 53 43 81 82 94 70
0 4 0 0 0 6 23 9 2 0 1 15 100 100 100 100 100 100 100 100 100 90 100 100 99 68 92 99 84 60 17 71 55 18 63 85 86 93 93 61 98 93 100
0 0 0 0 0 0 0 0 0 0 36 100 100 100 100 99 100 100 100 100 100 100 100 97 14 76 35 99 100 45 9 79 64 78 76 97 100 97 100 100 100 100 88
0 0 0 0 0 0 0 0 0 0 5 97 94 62 100 100 100 100 100 100 100 100 100 97 41 76 64 100 100 80 90 100 100 100 100 100 100 100 100 100 100 100 9
0 0 0 0 0 0 1 3 8 5 24 100 100 96 92 99 100 46 100 100 100 98 100 46 82 96 97 100 100 100 98 100 100 100 100 100 100 100 100 100 99 16 0
0 0 0 0 5 5 9 49 65 67 100 36 100 96 37 100 12 98 100 68 11 73 100 86 8 92 100 100 100 100 100 100 100 100 100 100 100 100 100 13 5 1 0
0 2 5 5 5 5 5 5 26 7 33 24 66 95 93 100 85 98 100 96 73 98 99 96 100 98 90 99 100 100 100 100 100 100 100 100 100 100 63 5 3 0 3
0 1 5 5 5 1 5 9 22 18 55 83 100 100 100 94 100 100 100 67 100 99 100 100 100 100 100 100 100 100 100 100 100 100 100 100 100 99 5 5 5 5 5
5 4 1 5 5 5 4 11 7 5 77 100 100 100 98 100 100 100 87 100 100 100 98 100 100 100 100 100 100 100 100 100 100 100 100 81 10 5 5 5 31 5 5
5 4 2 4 4 4 5 5 10 20 99 84 64 60 82 84 99 100 100 100 100 98 100 100 100 100 100 100 100 100 100 100 88 62 100 96 7 5 5 5 89 42 5
1 5 5 5 5 5 6 50 29 99 44 34 73 63 96 100 100 100 100 100 100 100 100 84 99 100 100 100 100 82 62 5 8 93 100 76 5 5 5 69 100 96 8
5 5 5 6 11 61 94 96 100 46 64 78 84 98 100 100 100 100 100 99 100 56 97 100 100 81 23 5 34 37 5 5 5 48 74 5 5 5 5 38 89 94 79
14 81 100 100 100 100 100 99 63 100 96 100 100 100 100 100 100 99 99 86 42 62 2 1 0 0 5 17 91 80 5 5 5 5 5 89 5 4 5 25 55 73 100
97 87 100 100 100 100 100 100 100 100 100 100 100 100 100 96 45 7 5 5 0 0 4 5 2 5 5 43 99 91 64 6 16 70 46 100 32 5 14 88 100 92 91
99 75 100 100 100 100 100 85 84 74 99 98 77 100 66 5 5 5 3 0 0 0 0 5 5 5 5 79 69 7 84 92 76 5 6 27 54 5 12 5 27 89 97
100 100 100 100 100 100 99 99 82 90 84 100 74 54 5 6 6 1 0 0 0 0 5 5 5 5 5 5 5 5 88 89 88 92 92 93 82 88 24 76 70 96 93
100 100 100 100 100 93 63 16 65 74 35 35 18 5 20 12 1 0 0 0 0 0 1 4 1 4 5 5 5 5 76 91 99 95 100 99 100 89 47 59 60 94 100
100 100 100 74 20 5 5 5 8 5 34 7 13 41 24 0 0 0 2 0 0 0 2 34 58 6 5 5 5 5 40 80 100 100 82 99 100 100 100 96 82 84 100

GFSMW_prec_cloud_051.txt.gz
Cloud_Cover
100 100 92 100 100 100 100 100 100 95 100 100 100 100 100 100 100 100 100 100 100 100 100 99 100 65 16 64 76 3 0 2 0 5 5 5 0 0 0 0 0 0 0
96 100 100 66 100 100 100 100 100 100 100 100 100 100 97 99 100 100 100 100 100 85 100 95 98 69 47 2 0 0 5 5 16 5 6 20 5 0 0 0 0 0 0
93 100 100 100 100 100 100 37 35 83 100 100 90 64 92 66 88 100 100 72 52 72 34 9 3 0 3 0 5 5 3 5 90 99 18 5 2 0 0 5 5 5 5
100 100 100 11 100 100 100 100 100 93 87 100 100 100 100 78 46 78 73 29 21 8 0 5 5 5 23 29 5 79 52 5 10 5 4 5 2 0 3 4 5 5 5
94 85 69 15 17 66 71 67 92 49 50 14 56 69 11 5 69 94 89 4 0 1 5 5 11 60 7 27 29 24 90 96 13 71 89 8 5 5 7 40 8 18 6
94 94 76 41 5 7 19 32 37 14 68 53 25 39 5 5 78 87 5 2 2 5 91 99 23 94 98 100 58 56 20 70 82 96 8 5 5 5 6 37 54 87 100
32 5 14 5 9 96 58 56 96 57 100 100 100 47 11 4 71 34 5 5 5 63 95 36 73 100 100 100 98 95 85 77 26 5 5 59 20 5 5 75 81 100 98
10 25 20 0 12 77 52 100 89 92 99 100 100 81 5 9 90 25 5 98 72 98 44 100 100 87 100 100 88 100 23 5 6 88 64 94 97 94 67 91 83 100 74
11 5 5 5 18 44 32 100 74 100 100 82 5 5 2 3 4 79 81 75 51 100 97 100 100 100 100 100 100 100 67 57 82 59 95 90 84 93 100 100 92 65 74
82 62 22 4 8 14 42 78 76 77 30 4 5 1 0 14 71 100 100 90 100 34 100 100 100 100 100 100 96 100 6 92 90 84 61 90 96 95 100 100 100 90 46
4 2 0 0 0 12 33 45 53 5 4 5 1 5 36 20 100 78 55 98 36 100 100 100 100 100 100 100 100 100 87 70 66 91 98 58 55 99 100 100 83 87 37
0 0 0 0 0 5 1 1 0 0 0 5 18 5 51 5 40 100 98 79 100 95 100 100 100 100 100 91 100 100 100 100 65 45 73 100 97 100 100 100 100 100 100
3 0 0 0 5 0 0 5 3 5 2 5 7 58 60 37 99 100 100 96 56 87 100 100 97 99 100 99 89 95 99 94 90 96 100 100 100 100 100 100 98 50 5
0 0 0 5 2 3 4 5 24 5 5 30 69 70 84 70 94 100 100 100 88 96 100 100 98 100 74 87 34 15 16 83 92 95 100 100 100 98 54 7 0 5 5
0 0 3 0 4 5 5 6 44 71 92 48 37 91 99 100 100 100 100 100 95 98 100 100 100 95 94 97 29 66 100 100 100 95 44 58 22 5 71 23 2 5 5
5 0 0 2 5 3 5 16 58 12 53 96 99 80 100 100 100 100 100 100 100 100 100 100 100 100 99 100 98 100 74 16 5 5 5 5 96 100 100 100 5 5 5
4 0 0 0 5 15 88 83 88 100 100 81 76 100 100 100 100 100 100 100 100 100 100 100 96 98 100 100 68 5 5 5 5 5 5 82 92 100 100 88 5 5 5
3 4 5 5 5 22 53 30 24 33 6 70 92 100 100 100 100 100 100 100 100 100 100 94 100 100 68 0 5 5 5 5 5 5 12 80 96 100 100 8 5 5 33
3 5 5 5 5 7 6 5 5 11 85 100 100 100 100 100 100 100 100 100 100 100 91 57 27 2 2 5 0 2 5 5 5 5 5 42 62 17 5 5 5 19 5
5 5 5 5 5 5 6 5 7 35 96 100 100 100 100 100 100 87 100 100 99 50 54 31 5 5 5 5 0 5 6 57 5 5 5 7 5 5 5 5 5 5 37
18 8 7 25 45 8 21 71 56 83 96 100 100 100 100 98 100 94 87 63 18 58 79 46 26 7 21 1 0 5 12 51 17 5 5 26 98 56 62 7 5 5 54
23 70 73 24 59 89 97 93 100 100 100 96 100 100 96 79 86 58 35 27 62 92 42 5 71 5 35 0 4 5 37 78 7 5 22 67 87 95 91 69 5 5 31
45 26 72 100 100 100 100 100 100 98 99 41 70 14 62 42 54 95 68 76 98 26 5 10 23 24 1 0 0 5 5 5 44 5 45 98 100 88 84 86 73 24 73
55 99 100 100 100 100 100 100 100 94 84 51 6 12 80 85 95 44 28 24 28 8 36 43 6 3 5 5 5 5 5 5 14 61 75 94 100 100 100 100 100 100 56
100 100 100 100 100 100 100 97 73 12 5 27 72 74 66 71 70 19 9 23 49 52 21 50 16 20 20 18 11 84 98 51 5 83 86 100 100 100 100 100 91 100 100
100 100 100 100 100 100 74 8 5 5 54 74 50 12 33 63 13 5 17 74 94 51 99 75 72 78 70 53 86 97 100 99 61 90 91 75 99 100 100 100 100 100 99

GFSMW_prec_cloud_054.txt.gz
Cloud_Cover
100 100 100 100 100 100 100 100 100 70 77 100 100 100 92 100 60 97 100 100 100 100 100 90 79 99 89 100 40 96 75 5 0 0 0 0 0 5 1 3 0 0 0
63 100 100 100 100 100 100 100 100 100 69 39 75 73 100 100 100 100 100 100 100 100 98 100 83 14 18 46 30 6 2 1 0 1 0 0 0 0 4 5 5 5 0
100 100 100 100 100 100 100 24 64 85 61 58 72 53 97 100 100 99 87 92 100 87 76 85 56 13 7 5 5 5 5 5 4 3 3 3 4 5 39 61 5 4 4
100 100 100 100 100 100 64 73 100 100 100 100 100 93 68 66 94 94 100 95 100 87 71 60 8 4 5 5 5 5 5 45 51 21 5 6 5 4 3 4 1 5 5
100 70 51 100 100 100 100 98 80 100 100 100 100 96 99 92 57 98 95 94 84 69 4 0 5 5 77 98 10 56 88 6 80 80 5 5 54 5 5 71 7 80 98
99 100 97 87 100 97 100 75 74 100 100 99 100 100 100 100 98 40 71 67 97 38 5 5 88 70 75 76 90 74 100 89 99 35 62 71 79 5 9 72 31 94 5
94 95 98 45 9 5 26 9 27 44 71 100 100 100 100 100 100 48 87 100 98 8 32 98 47 47 56 87 100 84 99 100 100 97 17 12 26 5 5 23 15 35 53
24 23 10 5 5 5 12 71 28 6 46 100 100 100 100 100 100 100 58 82 81 84 72 84 96 100 100 100 100 100 100 100 100 63 97 93 56 76 91 74 42 44 11
100 69 5 5 5 5 6 5 12 5 38 100 100 100 100 100 100 26 5 5 86 99 97 68 64 99 100 100 100 100 100 100 100 80 56 99 92 53 64 24 5 8 69
36 12 5 4 5 5 5 5 9 16 64 100 100 100 100 92 62 64 69 91 99 100 67 51 100 100 99 100 100 100 100 100 14 30 93 83 30 20 5 5 5 74 75
6 5 5 4 2 1 26 19 64 60 56 65 73 100 58 19 100 100 100 100 100 100 92 97 100 100 100 100 100 100 87 75 55 52 78 89 98 41 5 5 5 5 5
22 0 0 2 27 22 46 65 100 100 67 98 100 100 100 100 100 100 100 100 100 100 100 100 100 100 100 100 100 98 14 58 86 36 67 75 5 5 5 5 85 64 5
0 0 0 3 9 19 45 71 87 99 73 100 100 100 100 100 100 100 100 100 94 100 100 100 79 98 99 99 80 78 65 55 84 72 5 5 5 5 7 99 77 5 5
0 0 0 0 0 1 23 16 35 93 98 98 87 76 92 92 100 100 100 100 90 100 100 83 100 100 100 91 88 93 96 97 24 4 5 5 5 5 46 76 21 52 27
0 0 0 0 0 1 6 45 69 79 31 33 53 92 100 66 100 100 100 100 100 100 100 30 98 100 100 100 100 100 76 6 5 5 5 5 5 5 31 77 60 99 77
0 0 1 0 0 3 34 34 5 5 5 14 58 68 100 100 100 100 100 100 100 100 100 100 100 100 100 98 82 44 5 5 5 5 5 55 5 6 88 97 98 100 81
5 5 5 7 0 0 0 0 2 5 22 93 100 100 100 100 100 100 100 100 99 100 100 100 98 95 100 98 11 5 5 5 12 80 45 20 28 100 77 75 100 78 27
3 0 5 5 5 5 3 5 15 86 100 100 100 100 100 100 100 100 100 100 100 100 100 100 99 96 100 21 11 10 5 58 100 67 5 5 5 28 5 73 69 5 5
0 4 5 5 5 5 5 19 54 70 91 100 100 100 100 100 100 100 100 100 100 100 73 94 58 76 100 95 25 11 98 100 62 5 5 5 5 5 21 53 5 5 5
2 0 5 5 5 12 38 79 84 93 100 100 100 100 100 100 100 100 100 100 95 99 100 88 100 100 83 42 66 100 99 18 5 5 88 92 50 45 88 84 69 6 5
0 5 5 5 11 5 40 38 89 100 98 52 96 100 100 100 99 100 100 100 100 100 100 100 100 97 100 100 100 100 12 5 5 82 100 100 83 83 22 96 76 34 5
5 5 5 5 5 15 35 63 48 100 100 100 100 96 58 78 73 96 90 94 100 100 100 93 100 100 100 75 100 25 5 5 22 81 62 74 6 43 62 63 73 100 36
5 5 5 5 8 13 12 92 97 100 100 100 81 85 52 18 82 72 89 100 100 100 99 100 85 26 49 96 59 5 5 4 44 5 5 6 38 96 82 90 93 100 70
5 5 5 6 24 95 100 100 100 100 98 90 84 60 6 52 37 33 42 59 99 100 86 36 13 11 17 48 47 8 59 100 70 21 48 52 100 100 93 88 100 100 84
28 39 64 69 97 100 100 100 99 86 99 72 23 5 11 15 53 58 96 100 97 7 7 36 59 99 80 10 5 94 92 93 94 100 96 100 100 100 86 100 100 100 100
54 94 96 100 100 100 100 93 97 72 20 5 5 5 8 43 41 41 82 49 56 92 100 100 98 7 8 5 5 7 72 84 100 100 100 100 100 100 100 94 100 100 100

GFSMW_prec_cloud_057.txt.gz
Cloud_Cover
100 100 100 100 100 1 5 5 73 99 100 100 100 100 100 100 96 96 100 100 100 100 100 100 100 34 67 66 42 6 6 62 30 5 4 0 0 0 0 0 0 0 0
64 94 100 38 10 9 97 48 51 14 30 30 19 13 23 83 84 95 89 98 95 77 71 100 99 15 35 49 28 48 56 9 5 0 1 1 0 1 2 0 0 0 0
94 97 100 100 100 100 100 100 99 11 5 16 26 51 34 19 41 55 100 47 62 50 100 99 79 40 39 21 18 19 8 5 10 5 5 24 5 5 5 5 5 5 1
95 74 61 100 100 100 100 100 100 95 76 83 100 100 100 100 100 70 91 86 87 100 100 100 74 14 6 5 24 80 77 80 49 18 5 28 21 5 5 3 5 1 4
100 100 100 100 100 100 100 100 98 67 70 59 31 93 100 100 100 100 100 100 98 76 99 53 49 5 6 81 12 64 100 100 100 89 31 55 66 25 5 5 5 4 5
100 77 79 96 100 95 56 86 98 96 100 100 85 86 100 98 100 97 100 100 90 68 95 6 10 5 5 34 86 92 100 100 100 100 92 100 83 18 5 5 5 5 6
61 90 99 96 100 100 100 92 66 26 29 38 64 99 100 100 100 100 100 100 100 99 83 42 87 96 84 91 85 88 100 100 100 98 88 100 28 38 5 5 5 5 6
96 47 48 97 43 59 12 9 24 90 100 58 95 100 100 100 100 100 100 100 100 95 9 100 97 95 98 46 98 100 100 100 100 100 86 100 82 15 5 5 5 5 1
76 54 75 37 5 29 17 5 5 36 32 57 77 98 100 100 100 100 100 100 96 85 100 100 100 100 75 100 92 98 100 100 100 95 100 99 59 70 27 45 5 6 5
100 88 49 5 5 5 5 5 5 5 14 55 83 99 100 100 100 100 100 100 13 80 97 100 98 96 100 100 100 100 100 100 100 75 87 86 74 70 5 5 5 5 10
100 100 58 5 2 67 70 3 0 0 16 63 76 97 100 100 100 100 100 96 99 100 100 100 100 100 100 100 100 100 100 100 99 94 80 83 62 64 5 5 5 5 19
100 96 27 5 5 42 8 1 7 19 44 96 100 100 100 100 100 100 100 100 100 100 100 100 100 100 100 100 100 100 99 100 100 100 100 97 5 5 5 5 5 6 82
94 69 6 5 1 3 12 51 100 100 100 100 100 100 100 100 100 100 100 100 100 100 100 100 100 100 100 100 100 100 100 100 100 86 53 6 8 6 5 5 5 83 41
5 3 0 5 4 14 58 95 100 100 100 100 100 100 100 100 100 100 100 96 89 100 100 100 100 100 100 100 100 100 97 100 84 70 6 45 11 5 12 5 5 22 57
0 0 0 0 5 4 30 68 100 100 100 100 100 100 100 100 100 100 100 84 79 100 100 100 100 100 100 97 100 99 100 100 78 6 28 8 5 40 21 5 31 90 90
1 5 2 2 5 14 42 46 38 34 63 74 100 100 100 100 84 99 50 100 100 100 100 100 100 100 100 100 100 100 63 5 5 31 5 13 29 84 47 35 63 81 96
5 2 2 17 35 39 24 54 59 41 27 29 46 53 83 100 87 92 100 100 100 100 100 100 100 100 100 93 100 96 12 6 51 32 25 22 100 96 5 5 96 39 61
2 1 0 4 14 20 18 21 18 22 50 98 92 99 92 100 100 100 100 100 100 100 100 100 100 100 100 100 98 89 42 39 27 71 67 100 97 9 5 5 68 81 28
4 5 0 5 5 5 5 5 9 24 94 99 100 61 99 100 100 100 100 100 100 100 85 97 87 67 100 100 83 80 80 36 83 58 100 94 9 5 22 18 40 36 41
5 5 5 5 5 5 5 5 58 94 100 85 74 96 98 100 100 100 96 81 90 76 20 5 57 84 71 31 41 58 35 33 31 69 69 12 5 5 100 20 71 98 38
5 5 5 5 5 5 5 5 41 62 58 92 100 99 99 86 49 5 5 7 27 35 5 10 8 38 33 14 44 99 46 11 5 5 5 5 5 5 58 5 65 42 63
5 5 5 5 5 5 5 5 5 5 12 55 96 82 23 5 49 36 39 45 26 58 18 19 33 37 44 72 93 26 8 5 19 5 5 5 4 5 65 75 84 100 90
5 8 5 5 5 5 5 5 52 68 68 58 16 5 5 5 38 40 47 56 36 5 6 6 22 70 92 75 26 6 5 5 95 99 52 6 67 90 97 92 96 100 100
5 5 12 5 5 5 5 5 72 100 64 5 8 34 26 10 17 61 44 11 5 5 5 17 73 72 6 5 5 5 5 57 53 59 60 100 100 100 100 100 100 100 100
63 47 38 17 50 71 99 99 100 64 5 13 26 5 30 23 26 5 5 5 5 5 18 48 94 63 32 78 87 75 68 43 5 12 63 100 92 100 100 100 100 100 100
6 5 35 100 100 100 100 80 19 27 57 56 42 5 18 18 11 18 55 39 44 54 49 85 37 97 90 69 67 73 95 49 50 60 69 99 86 100 100 100 100 100 100

GFSMW_prec_cloud_063.txt.gz
Cloud_Cover
94 17 88 100 100 100 100 100 100 97 100 100 100 100 100 100 100 100 100 100 100 100 100 100 100 100 100 100 100 100 100 100 96 100 76 100 48 11 4 0 5 4 5
74 7 99 100 100 100 94 100 100 31 61 100 100 100 100 98 100 100 100 100 100 100 100 100 100 100 100 100 100 62 100 100 96 39 92 10 36 32 18 4 4 5 5
34 81 92 100 100 99 91 43 96 34 87 93 35 38 100 100 100 100 100 100 100 100 100 100 100 100 100 98 100 100 100 79 74 66 6 8 29 58 82 35 5 60 39
100 29 100 68 100 100 100 100 100 100 96 100 100 98 80 78 45 99 93 100 100 100 100 100 100 100 78 100 98 100 99 18 40 5 5 33 67 100 81 98 7 5 6
98 98 36 7 26 100 100 100 100 79 100 100 100 26 8 5 38 47 56 95 100 100 100 100 100 100 100 98 100 100 100 100 96 62 99 98 100 100 29 55 79 60 9
100 100 100 100 98 40 81 79 38 11 14 9 6 5 55 5 5 5 62 100 100 100 100 99 100 100 100 100 100 100 100 100 100 91 100 77 98 74 82 100 25 5 5
100 100 98 100 100 99 92 62 35 35 56 57 18 18 26 48 46 58 98 100 100 100 100 100 100 100 98 100 100 100 100 91 100 100 100 92 100 100 100 100 88 24 5
100 100 94 75 67 98 100 80 96 100 80 71 23 54 60 32 32 48 100 100 100 100 100 100 100 100 100 100 100 100 100 100 99 100 100 100 100 100 94 100 100 34 53
11 56 96 99 100 99 91 25 30 95 96 94 99 100 100 93 91 68 100 100 100 100 100 100 100 100 100 100 100 100 100 100 100 100 100 100 100 100 87 96 100 90 56
5 5 35 71 51 16 15 21 52 78 90 83 90 86 99 100 100 100 100 100 100 100 100 100 100 100 100 100 100 100 100 100 100 100 100 100 100 99 99 94 76 30 44
54 35 92 98 13 7 66 43 27 84 91 36 89 100 94 97 100 100 100 100 100 100 100 100 100 100 100 100 100 100 100 100 100 100 100 100 99 97 100 100 84 84 100
54 80 6 65 92 50 6 16 55 66 55 94 95 100 98 100 100 100 100 100 100 100 100 100 100 100 100 100 100 100 100 100 100 100 100 100 100 100 100 100 100 100 94
12 8 5 5 5 10 48 76 5 18 29 43 86 80 100 100 100 100 100 100 100 100 100 100 100 100 100 100 100 100 100 100 100 100 100 100 100 100 100 100 100 100 71
7 36 50 11 28 7 32 17 40 51 71 82 94 100 100 100 100 100 100 100 100 100 100 100 100 100 100 100 100 100 100 100 100 100 94 95 98 100 100 100 100 100 93
95 98 97 94 87 80 59 79 100 100 100 100 100 100 100 100 100 100 100 100 100 100 100 100 100 100 100 100 100 100 100 100 100 100 76 93 100 100 100 100 100 100 60
100 100 100 100 100 74 96 100 100 100 100 100 100 100 100 100 100 100 100 100 100 100 100 100 100 100 100 100 100 100 100 100 77 86 88 100 100 100 53 61 76 94 12
36 84 100 100 64 98 100 100 98 100 100 100 100 100 100 100 100 100 100 95 68 89 100 100 100 100 89 95 94 44 37 28 56 96 96 96 72 47 57 78 96 92 15
83 84 100 100 100 100 83 79 81 79 75 74 79 97 82 56 51 61 57 48 80 100 100 80 88 75 64 76 59 94 100 98 44 39 29 5 5 5 6 84 40 12 19
94 100 100 100 100 47 52 86 78 56 6 5 27 38 54 60 59 26 49 54 98 100 75 70 87 99 100 93 29 25 11 9 33 5 5 5 5 5 6 24 28 5 5
42 100 100 92 32 7 5 5 4 5 8 32 57 84 94 100 96 67 76 62 88 100 100 100 75 68 34 7 6 6 5 13 5 5 9 5 5 5 5 62 26 5 5
68 100 100 100 100 100 97 41 13 32 43 71 90 78 88 98 72 76 100 100 100 100 100 99 100 100 100 18 13 24 5 5 6 5 5 5 5 5 4 6 67 84 53
15 30 100 100 85 100 100 100 90 88 100 73 95 98 99 100 99 99 100 100 100 100 94 99 85 82 19 5 14 5 5 5 5 5 5 5 5 5 4 3 3 8 89
1 48 100 100 93 57 100 100 100 99 100 100 98 100 100 100 92 92 100 100 100 100 100 100 47 23 62 36 5 5 11 5 5 5 5 5 5 5 5 5 5 21 66
0 4 11 100 100 61 60 95 99 99 89 100 100 100 100 100 100 94 48 72 93 99 17 5 15 38 7 5 12 8 5 5 5 5 5 5 5 6 6 5 12 31 62
3 5 16 100 100 100 78 48 52 100 100 100 100 66 59 66 100 93 100 100 100 77 14 16 10 12 5 28 26 27 48 8 15 43 14 79 43 39 39 34 33 9 100
8 6 5 20 100 100 100 100 100 100 100 99 94 84 98 100 100 100 100 100 98 51 26 12 5 5 38 58 74 67 71 56 45 53 95 100 100 100 100 97 83 41 78

GFSMW_prec_cloud_066.txt.gz
Cloud_Cover
100 100 76 40 100 100 100 100 100 100 100 100 100 100 100 100 100 100 100 100 100 100 100 100 100 100 100 100 100 100 100 100 100 100 100 100 95 63 62 53 19 54 5
88 79 100 34 12 32 100 96 89 86 82 100 100 100 100 100 100 100 100 100 100 100 100 100 100 100 100 100 100 100 100 100 100 76 100 100 100 73 97 88 24 37 6
55 27 1 9 75 100 98 5 17 83 96 50 81 100 100 100 100 100 100 100 100 100 100 100 100 100 100 100 100 100 100 100 100 94 90 99 100 100 98 100 58 5 5
12 48 5 97 64 79 100 100 55 2 0 82 90 1 14 15 30 6 33 99 100 100 100 100 100 100 100 100 100 100 100 99 100 100 100 100 100 100 100 93 37 5 5
100 100 100 14 99 100 100 49 85 92 90 68 98 93 9 7 9 4 4 16 59 16 84 91 98 100 100 96 97 100 100 100 100 100 100 100 100 100 100 39 100 61 9
100 100 100 95 53 98 100 100 100 100 100 96 5 52 83 14 5 7 17 16 69 87 100 100 100 100 100 100 100 100 100 100 100 100 100 100 100 100 100 70 80 100 97
100 100 86 95 95 60 85 80 100 100 100 100 81 49 45 6 6 20 16 49 97 100 100 100 100 100 100 100 100 100 100 100 100 100 100 100 100 100 100 100 100 96 61
5 68 100 100 53 49 44 27 98 99 85 17 47 97 100 70 6 5 4 5 5 67 100 100 100 100 100 100 100 100 100 100 100 100 100 100 100 100 100 100 100 100 96
5 5 5 85 98 100 100 80 56 7 5 5 40 11 92 7 99 46 7 10 71 8 83 100 100 100 98 100 100 100 100 100 100 100 100 100 100 100 100 100 91 100 81
52 5 5 5 5 5 21 26 5 5 5 5 5 5 5 5 5 10 38 94 100 98 89 100 100 100 100 100 100 100 100 100 100 100 100 100 100 100 100 100 97 100 96
18 38 42 50 7 41 10 5 39 5 5 5 6 5 5 6 85 95 100 94 100 100 100 100 100 100 100 100 100 100 100 100 100 100 100 100 100 100 100 95 100 96 98
5 5 7 21 36 85 95 100 88 3 4 43 100 99 100 97 100 78 76 100 100 100 100 100 100 100 100 100 100 100 100 100 100 100 100 100 98 100 100 99 100 56 6
5 4 5 5 46 47 68 99 100 67 97 100 91 98 100 99 83 99 100 100 100 100 100 100 100 100 100 100 100 100 100 100 100 100 100 100 93 100 98 73 100 74 5
0 5 98 84 10 5 5 5 6 28 6 45 87 100 100 100 100 100 100 100 100 100 100 100 100 100 100 100 100 100 100 100 100 100 100 94 98 97 43 52 24 43 6
4 5 3 2 5 90 61 15 17 16 42 100 100 100 100 100 100 100 100 100 100 100 100 100 100 100 100 100 100 100 100 100 100 100 100 100 9 5 5 5 39 65 64
4 2 4 0 1 94 100 100 100 97 92 77 99 100 100 100 100 100 100 100 100 100 100 100 100 100 100 100 100 100 100 100 88 100 80 22 69 18 15 98 100 100 100
0 0 4 1 4 55 100 100 100 100 99 98 100 100 100 100 100 100 100 100 100 100 93 76 97 100 100 100 91 100 100 100 100 100 100 99 41 5 5 5 5 5 16
0 0 1 12 3 6 72 96 100 100 100 100 100 100 100 100 100 100 100 100 64 15 57 78 100 81 93 100 100 100 96 81 66 68 17 5 17 28 5 5 5 5 5
0 0 0 4 12 71 89 98 92 95 85 79 97 67 46 72 100 68 10 5 65 100 100 94 97 91 100 100 100 100 84 31 6 14 17 5 16 5 5 5 5 5 5
4 5 5 5 5 6 9 55 100 70 45 63 50 100 100 99 72 90 33 81 87 36 20 79 100 98 88 96 100 100 14 6 5 10 48 17 5 5 5 5 5 30 5
5 5 5 5 5 0 4 82 100 64 44 45 100 100 87 75 49 78 100 64 78 87 100 100 97 100 100 100 100 100 61 18 58 38 23 7 5 10 5 5 5 5 2
5 5 5 5 5 5 5 5 37 57 79 96 58 91 93 100 89 98 100 100 100 100 100 100 100 100 100 100 100 73 60 33 35 26 11 74 28 5 5 5 5 10 8
5 5 5 5 5 5 5 5 5 64 100 94 85 94 79 77 100 100 100 100 100 100 100 100 100 100 100 99 18 24 23 5 5 16 10 5 5 5 5 5 60 22 96
5 5 6 28 5 5 5 5 7 19 94 100 100 100 100 100 100 100 100 100 100 100 100 100 98 69 7 92 43 83 85 62 40 5 5 5 6 12 5 5 5 40 6
5 5 5 37 5 5 5 7 50 45 38 94 100 90 85 76 63 85 86 84 100 84 56 50 38 24 66 57 87 79 77 96 76 16 5 21 29 5 5 5 41 18 81
6 7 78 91 100 63 42 5 14 43 18 29 39 61 86 93 75 67 36 49 98 94 94 82 60 5 29 100 91 81 100 99 99 18 5 7 5 5 5 60 95 92 100

GFSMW_prec_cloud_069.txt.gz
Cloud_Cover
93 91 98 81 100 100 100 100 100 100 100 100 100 100 100 100 100 100 100 100 100 100 100 100 100 100 100 100 100 100 100 100 100 100 100 100 100 100 100 100 100 100 85
100 59 43 90 100 69 89 89 100 100 100 100 100 100 100 100 100 100 100 100 100 100 100 100 100 100 100 100 100 100 100 100 100 100 100 100 98 100 100 95 100 83 88
98 98 98 100 100 88 100 100 100 100 100 100 100 100 100 100 100 100 100 100 100 100 100 100 100 100 100 100 100 100 100 100 100 100 99 98 98 100 90 100 78 100 100
8 100 80 77 100 86 42 30 100 100 100 100 100 100 100 100 100 100 100 100 100 100 100 100 100 100 100 100 99 100 68 100 100 97 100 100 100 100 98 100 100 97 93
22 79 100 30 99 48 64 5 81 86 99 100 100 100 100 100 100 100 100 100 100 100 100 98 98 99 100 99 65 66 97 100 100 100 100 100 100 100 100 100 100 100 96
21 74 100 100 100 99 76 100 100 72 55 78 50 25 99 90 45 77 5 3 16 76 9 59 68 14 21 63 34 76 100 100 100 100 100 100 100 100 100 99 100 100 100
4 60 60 56 93 29 100 100 87 100 100 100 100 32 5 7 0 1 5 5 5 67 85 52 94 58 45 100 63 79 98 100 98 100 100 100 100 100 100 100 100 100 100
5 5 5 1 2 5 4 22 98 97 48 5 89 100 33 5 5 5 4 5 5 60 81 7 25 7 39 66 100 100 100 100 100 100 100 100 100 100 100 100 100 100 100
5 56 10 48 12 18 5 5 0 0 1 1 4 5 43 5 5 25 14 98 39 84 100 100 100 100 100 100 99 100 100 100 100 100 100 100 100 100 100 100 100 100 99
18 65 90 91 11 5 5 5 5 5 5 5 10 12 5 46 70 90 73 100 100 100 100 100 100 100 100 92 96 100 100 100 100 100 100 100 100 100 100 100 100 91 56
2 5 5 5 5 5 5 5 4 4 2 67 99 89 78 82 100 100 100 100 100 100 100 100 100 100 95 100 100 100 100 100 100 100 100 100 100 100 100 96 77 52 64
0 0 0 2 7 5 92 100 1 98 100 100 100 100 100 100 100 100 100 100 100 100 100 100 100 100 100 100 100 100 100 100 100 100 100 100 100 100 78 76 72 8 53
0 0 0 0 0 2 4 64 98 100 100 100 100 100 100 98 100 100 100 100 100 100 100 100 100 100 100 100 100 100 100 100 100 100 100 100 100 95 96 97 100 100 63
0 0 0 0 0 0 47 10 61 100 100 100 100 100 100 100 100 100 100 100 100 100 100 100 100 100 100 100 100 100 100 100 100 100 100 100 100 93 66 58 14 5 5
3 0 0 0 2 9 83 98 100 100 98 100 100 100 100 100 100 100 100 100 100 100 100 100 100 100 100 100 100 100 100 100 100 100 100 98 97 17 7 63 92 75 52
18 4 0 0 1 7 47 100 100 100 100 100 100 100 100 100 100 100 100 100 100 100 100 100 100 100 100 100 100 100 100 100 100 100 26 22 5 10 51 55 56 82 84
3 2 0 0 0 17 37 72 86 99 100 100 100 100 100 100 100 100 98 100 100 100 100 100 100 100 93 100 88 100 75 42 5 5 52 100 16 7 12 5 7 11 17
14 20 0 0 7 17 4 10 22 40 69 99 100 100 89 100 100 100 100 100 90 100 93 59 59 96 100 100 74 19 5 8 30 100 100 100 79 11 9 90 94 96 94
0 5 5 0 0 3 5 5 0 6 49 88 94 100 100 100 100 100 89 94 34 80 98 100 100 100 100 87 75 63 100 100 100 100 99 81 95 100 84 9 5 94 100
7 5 5 5 5 2 4 5 72 100 100 100 100 98 79 56 47 35 21 7 53 86 64 95 50 38 100 100 100 100 100 98 82 51 90 53 21 6 24 74 62 55 45
6 5 5 5 5 5 5 5 16 17 4 10 6 83 79 51 98 45 7 21 74 99 100 98 100 100 100 91 100 100 100 79 41 60 45 50 78 33 100 99 100 100 100
16 5 5 5 5 5 5 4 0 0 5 5 30 74 2 5 50 98 100 100 100 100 100 100 64 5 5 29 59 84 19 18 37 77 97 99 97 98 97 100 100 100 72
6 5 44 86 30 5 5 5 0 2 5 5 20 4 0 1 5 97 100 100 100 60 48 63 38 32 70 60 54 71 99 38 70 100 100 100 100 100 100 100 100 100 49
26 6 61 74 22 35 6 5 5 6 15 28 71 8 5 3 11 83 100 95 86 100 98 99 85 76 73 77 100 100 100 100 100 90 92 100 100 100 100 100 100 93 23
99 24 71 44 60 41 42 50 33 26 99 100 31 8 5 5 8 52 65 100 93 99 98 94 96 99 97 96 90 87 99 75 88 94 100 100 100 100 100 100 99 96 63
99 100 100 84 88 86 100 100 100 100 100 100 67 28 60 35 57 98 100 100 100 100 100 94 100 100 100 100 65 67 84 69 96 100 100 100 100 100 100 96 98 86 95

GFSMW_prec_cloud_072.txt.gz
Cloud_Cover
84 31 44 63 100 86 100 100 100 100 100 100 100 100 100 100 100 100 100 100 100 100 100 78 75 100 100 100 100 100 100 100 100 100 100 100 100 100 100 100 100 100 100
58 56 16 32 100 100 100 100 100 100 97 100 100 100 100 100 100 100 90 100 100 100 100 99 46 99 100 100 100 100 100 100 100 100 100 100 100 100 94 73 99 90 30
36 30 42 21 100 100 98 92 99 69 94 100 100 100 100 100 100 100 100 100 100 97 100 100 100 100 100 100 98 97 100 100 100 100 100 100 100 98 100 87 100 98 29
0 0 90 53 100 50 100 100 100 100 100 100 100 100 100 100 100 100 100 100 100 100 100 100 95 100 100 100 73 65 89 100 92 84 100 100 100 100 100 100 100 100 82
5 16 100 100 82 100 100 100 47 99 100 100 100 100 100 100 100 100 100 100 100 100 100 100 100 100 99 98 100 100 100 100 100 99 98 100 100 100 100 100 100 100 100
7 4 38 93 74 76 89 100 100 100 100 100 100 100 100 98 100 100 100 100 100 100 100 100 100 100 100 100 90 28 84 89 97 64 100 100 100 100 100 100 100 100 100
5 6 34 9 91 13 7 6 48 72 100 100 88 100 98 100 91 58 80 96 100 100 100 96 99 75 59 100 100 96 60 87 100 100 100 100 100 100 100 100 100 100 100
15 5 1 1 9 11 8 78 84 85 100 63 67 100 100 55 17 43 95 61 35 83 50 100 100 99 100 100 99 34 88 100 100 100 100 100 100 100 100 100 100 100 100
5 5 1 2 1 5 52 26 6 21 70 64 88 40 5 5 78 8 13 11 15 71 97 100 93 94 100 100 100 65 100 100 100 100 100 100 100 100 100 100 100 100 100
5 4 4 28 28 0 0 3 20 5 1 2 5 24 44 32 6 70 100 100 100 100 100 100 100 100 100 100 67 100 100 100 100 100 97 81 73 91 100 100 100 100 100
0 0 2 53 86 21 4 1 28 20 5 70 99 100 100 100 100 100 100 100 100 100 100 100 100 100 100 100 100 100 100 100 100 100 100 99 100 100 100 100 100 100 98
0 0 0 0 0 0 0 0 5 45 100 100 100 100 100 100 100 100 100 100 100 100 100 100 100 100 100 100 100 100 100 100 100 100 100 100 100 100 100 100 100 57 43
1 0 0 0 0 0 0 0 1 97 100 100 100 100 100 100 100 100 100 100 100 100 100 100 100 100 100 100 100 100 100 100 100 100 100 100 100 100 100 99 74 98 100
3 0 0 0 0 0 0 0 0 98 100 100 100 100 100 100 100 100 100 100 100 100 100 100 100 100 100 100 100 100 100 100 100 100 100 100 100 100 95 100 100 94 38
38 4 0 3 50 39 35 36 57 43 100 100 100 100 100 100 100 100 100 100 100 100 100 100 100 100 100 100 100 100 100 100 100 100 100 100 85 98 100 92 27 5 5
5 3 4 0 55 100 100 100 100 100 94 100 100 100 100 100 100 100 100 100 100 100 100 100 100 100 100 100 100 100 100 100 100 100 100 100 49 28 38 5 5 5 5
6 10 15 5 42 100 100 100 100 100 100 100 100 100 100 100 100 100 100 100 100 100 100 100 100 100 100 100 100 100 100 100 100 100 56 5 5 5 5 12 6 5 5
88 59 92 20 92 100 100 100 100 100 100 100 100 100 100 100 100 100 100 100 100 100 100 100 100 100 100 100 100 100 100 68 39 10 27 6 5 5 12 5 5 21 26
78 32 5 29 80 100 100 100 100 100 100 100 100 100 100 100 100 100 100 100 100 87 96 100 100 100 100 100 100 100 20 5 40 16 7 5 5 5 5 5 5 89 65
48 19 8 23 26 46 42 92 100 100 100 100 100 100 100 100 100 100 100 86 18 66 100 100 100 100 100 100 100 28 5 13 5 5 5 5 5 5 34 12 94 100 100
73 74 6 99 100 30 5 15 50 91 87 100 100 100 100 100 95 69 52 24 42 91 99 94 91 100 100 48 60 36 6 17 52 5 18 5 7 16 49 66 96 45 61
95 71 7 25 73 46 66 81 36 55 100 100 100 88 42 14 6 7 5 20 10 0 19 27 20 57 36 88 100 87 36 55 23 54 78 76 66 78 68 54 37 74 99
100 88 15 26 78 96 100 100 100 82 10 11 5 56 49 6 41 46 5 26 47 7 7 5 7 61 100 100 84 55 87 71 98 100 100 100 100 100 100 100 100 100 100
100 96 91 82 97 100 100 100 100 100 22 26 81 100 48 41 50 68 73 97 28 21 5 28 96 100 100 99 96 84 100 100 100 100 100 100 100 100 100 100 100 100 100
63 82 99 100 100 100 100 100 100 100 100 76 100 100 100 100 85 100 100 100 100 84 86 97 97 100 100 100 98 100 100 100 100 100 100 100 100 99 100 100 100 100 100
93 97 100 100 100 100 100 82 54 95 100 98 100 100 100 100 100 92 93 100 100 100 100 100 100 100 100 100 91 84 81 96 100 100 100 100 100 100 100 100 100 100 100

GFSMW_prec_cloud_075.txt.gz
Cloud_Cover
12 97 100 65 100 100 100 100 100 100 100 100 100 100 100 100 100 100 100 100 100 100 100 100 100 100 100 100 100 100 100 100 98 100 100 100 100 100 100 100 100 100 100
100 96 95 100 100 100 100 100 100 100 100 100 100 100 100 100 100 100 100 100 100 100 100 100 100 100 100 100 100 100 98 100 100 100 100 100 100 100 100 100 100 98 93
100 81 100 100 100 100 100 100 100 100 100 100 100 100 100 100 100 100 100 100 100 100 100 100 100 100 100 100 100 100 100 100 94 100 99 96 100 100 100 97 99 100 100
20 3 38 94 94 100 100 100 100 100 100 100 100 100 100 100 100 100 100 100 100 100 100 100 100 100 100 100 100 100 100 95 80 99 99 94 89 100 98 100 100 84 100
0 1 48 100 96 100 100 100 100 100 100 100 100 100 100 100 100 100 100 100 100 100 100 100 100 100 100 80 98 100 99 98 93 100 100 92 100 99 100 100 73 100 100
43 11 5 100 91 93 88 100 100 100 100 100 100 100 100 100 100 100 100 100 100 100 100 100 100 100 100 86 87 73 69 51 34 45 59 95 100 100 84 100 100 100 100
5 5 5 18 90 6 75 13 6 9 11 34 100 100 100 100 100 47 68 45 80 62 73 76 99 92 88 95 69 100 99 92 52 50 55 90 100 100 64 100 100 100 100
5 4 5 5 10 9 5 4 5 5 5 5 16 26 84 6 5 10 6 10 19 64 99 100 100 100 100 89 100 100 100 99 40 93 100 79 88 100 100 100 98 100 100
0 5 5 5 5 1 0 5 5 5 5 1 1 5 5 5 5 68 38 91 91 99 100 100 100 100 100 100 83 100 100 100 77 99 71 100 100 83 100 100 100 100 100
0 0 0 0 5 5 4 1 6 10 14 18 7 5 24 64 91 99 79 95 99 75 100 100 100 100 100 100 100 100 100 100 100 100 100 100 100 100 100 100 100 100 100
1 0 0 0 0 3 60 74 5 16 98 97 85 86 66 100 100 100 100 100 100 100 100 100 100 100 100 100 100 100 100 100 100 100 100 100 100 100 100 100 96 100 100
4 0 0 0 0 0 0 0 5 13 92 100 100 100 100 100 100 100 100 100 100 100 100 100 100 100 100 100 100 100 100 100 100 100 100 100 100 100 100 100 100 100 100
5 0 0 0 0 0 0 0 0 0 72 100 100 100 100 100 100 100 100 100 100 100 100 100 100 100 100 100 100 100 100 100 100 100 100 100 100 100 100 100 100 100 100
14 0 1 2 0 0 0 3 0 0 0 65 100 100 100 100 94 100 100 100 100 100 100 100 100 100 100 100 100 100 100 100 100 100 100 100 100 100 100 100 100 100 98
48 1 0 2 16 10 0 0 0 0 0 0 43 100 100 100 100 100 100 100 100 100 100 100 100 100 100 100 100 100 100 100 100 100 100 100 100 94 100 100 100 100 93
97 6 87 52 0 0 5 60 74 26 0 12 75 100 100 100 100 100 100 100 100 100 100 100 100 100 100 100 100 100 100 100 100 100 100 100 100 100 100 100 100 95 84
96 100 86 100 21 9 50 78 100 93 56 57 100 100 100 100 100 100 100 100 100 100 100 100 100 100 100 100 100 100 100 100 100 100 100 100 100 100 99 81 85 23 5
62 90 100 100 46 62 100 100 100 100 100 100 100 100 100 100 100 100 100 100 100 100 100 100 100 100 100 100 100 100 100 100 100 100 100 100 100 100 75 7 10 81 35
26 27 5 79 99 94 100 100 100 100 100 100 100 100 100 100 100 100 100 100 100 100 100 100 100 100 100 100 100 100 100 100 100 100 100 100 100 100 100 81 96 100 100
24 34 45 86 100 100 100 100 100 100 100 100 100 100 100 100 100 100 100 100 100 100 100 100 100 100 100 100 100 100 100 100 98 13 100 100 42 100 100 100 99 100 100
100 100 67 100 100 100 100 100 100 100 100 100 100 100 100 100 100 100 100 100 100 100 100 100 100 100 100 100 100 100 100 57 78 100 100 100 100 100 100 100 100 100 100
100 100 100 100 100 100 98 100 100 100 100 100 100 100 100 100 100 100 100 100 100 100 100 100 100 100 100 100 100 96 67 100 100 100 100 100 100 100 100 100 95 98 100
100 100 100 100 100 100 100 100 97 94 98 100 100 100 100 100 100 100 100 100 100 100 100 100 100 100 96 79 88 100 100 100 100 100 100 100 100 100 100 100 100 100 100
100 100 100 100 100 100 100 99 93 64 100 100 100 100 100 100 94 94 89 96 98 100 100 100 100 87 98 100 100 100 100 100 100 100 100 100 100 100 100 100 100 100 100
100 100 100 100 100 100 100 100 69 59 57 35 88 100 100 100 99 100 100 100 100 100 100 100 100 100 100 100 100 100 100 100 100 100 100 100 100 100 100 100 100 100 100
100 100 100 100 100 100 100 100 100 100 100 99 100 100 100 100 100 100 100 100 100 100 100 100 100 100 100 100 100 100 100 100 100 100 100 100 100 100 100 100 100 100 100

GFSMW_prec_cloud_081.txt.gz
Cloud_Cover
23 100 95 100 100 100 100 100 100 100 100 100 100 100 100 100 100 100 100 100 100 100 100 100 100 100 100 100 100 100 100 100 98 100 100 100 81 100 89 99 75 94 57
76 98 98 100 92 100 100 100 100 100 100 100 100 100 100 100 100 100 100 100 100 100 100 100 100 100 100 100 100 100 100 100 100 100 100 100 100 84 34 32 57 100 100
20 90 100 100 100 100 100 100 100 100 100 100 100 100 100 100 100 100 100 100 100 100 100 100 100 100 100 98 100 100 100 100 98 81 81 69 88 90 93 100 100 100 68
0 17 100 100 100 100 100 100 100 100 100 100 100 100 100 100 100 100 100 100 100 100 100 100 100 100 100 100 100 100 100 100 100 77 84 100 67 94 47 94 88 82 100
0 0 85 100 100 100 100 100 100 100 100 100 100 100 100 100 100 100 100 100 100 100 100 100 100 100 100 100 100 100 100 100 100 88 89 100 81 98 100 86 82 100 14
0 0 8 69 100 100 100 100 100 100 100 100 100 100 100 100 100 100 100 100 100 100 100 100 100 100 100 100 100 100 100 100 100 100 70 50 64 98 100 100 74 98 30
0 0 9 99 100 100 100 100 100 100 100 100 100 100 100 100 100 100 100 100 100 100 100 100 100 100 100 100 100 100 98 100 100 39 15 25 100 100 100 100 100 41 92
6 0 0 1 48 100 100 100 100 100 100 100 100 100 100 100 100 100 100 100 100 100 100 100 100 100 100 100 100 100 100 32 13 9 89 100 51 100 100 100 100 100 100
35 10 0 0 0 16 95 100 41 53 91 100 100 100 100 100 100 100 100 100 100 100 100 100 100 100 100 96 100 100 100 72 44 100 55 44 65 100 100 100 100 100 100
100 61 2 0 0 0 0 20 16 4 11 34 62 94 100 100 100 100 100 100 100 100 100 100 100 100 90 63 100 98 92 91 90 100 100 100 100 100 100 100 100 100 100
100 74 4 2 0 0 0 0 0 2 5 5 5 5 8 12 50 82 57 68 76 96 100 100 100 82 100 85 100 98 100 100 100 100 100 100 100 100 100 100 100 100 100
100 100 32 5 0 0 0 0 2 16 5 5 7 85 60 86 93 78 100 96 86 90 100 100 100 100 100 92 95 100 100 100 100 100 100 100 100 100 100 100 100 100 100
100 100 67 11 5 0 0 0 0 11 21 69 70 99 100 100 100 100 100 88 18 97 99 100 93 78 83 100 100 100 100 100 100 100 100 100 100 100 100 100 100 100 100
100 100 73 40 5 5 5 5 1 0 0 0 42 74 71 84 93 100 100 63 87 47 22 97 100 100 100 100 100 100 100 100 100 100 100 100 100 100 100 100 100 100 100
87 100 100 87 91 5 5 5 5 5 3 0 0 0 20 86 98 100 74 100 100 100 100 100 100 100 100 100 100 100 100 100 100 100 100 100 100 100 100 100 100 99 100
100 100 100 100 100 100 11 3 5 5 5 5 5 1 0 0 0 18 99 100 100 100 100 98 84 100 100 100 100 100 100 100 100 100 100 100 100 100 100 100 100 100 100
100 100 100 100 100 100 100 85 5 5 5 5 8 5 3 2 0 8 94 100 100 100 100 100 100 100 100 100 100 100 100 100 100 100 100 100 100 100 100 100 100 100 100
100 100 100 100 100 100 100 97 43 87 11 80 5 13 34 75 84 100 100 100 100 100 100 100 100 100 100 100 100 100 100 100 100 100 100 100 100 100 100 100 100 100 100
100 100 100 100 100 100 100 100 100 100 51 82 96 99 99 100 100 100 100 100 100 100 100 100 100 100 100 100 100 100 100 100 100 100 100 100 100 100 100 100 100 100 100
100 100 100 100 100 100 93 100 100 98 100 100 100 100 100 100 100 100 100 100 100 100 100 100 100 100 100 100 100 100 100 100 100 100 100 100 100 100 100 100 100 100 100
100 100 100 100 100 100 100 100 100 100 100 100 100 100 100 100 100 100 100 100 100 100 100 100 100 100 100 100 100 100 100 100 100 100 100 100 100 100 100 100 100 100 100
100 100 100 100 100 100 100 100 100 100 100 100 100 100 100 100 100 100 100 100 100 100 100 100 100 100 100 100 100 100 100 100 100 100 100 100 100 100 100 100 100 100 100
100 100 100 100 100 100 100 100 100 100 100 100 100 100 100 100 100 100 100 100 100 100 100 100 100 100 100 100 100 100 100 100 100 100 100 100 100 100 100 100 100 100 100
100 100 100 100 100 100 100 100 100 100 100 100 100 100 100 100 100 100 100 100 100 100 100 100 100 100 100 100 100 100 100 100 100 100 100 100 97 100 100 100 100 100 100
100 100 100 100 100 100 100 100 100 100 100 100 100 100 100 100 100 100 100 100 100 100 100 100 100 100 100 100 100 100 100 100 100 100 87 87 99 100 100 100 100 100 100
100 100 100 100 100 100 100 100 100 100 100 100 100 100 100 100 100 100 100 100 100 100 100 100 100 100 100 100 100 90 89 94 99 98 87 98 100 100 99 100 100 100 100

GFSMW_prec_cloud_087.txt.gz
Cloud_Cover
0 0 0 0 0 27 100 100 99 100 100 100 100 100 100 100 100 100 100 100 100 100 100 100 100 100 100 100 100 100 100 100 100 100 92 100 100 78 38 76 28 30 55
0 2 0 0 1 46 100 100 98 85 87 100 100 100 100 100 100 100 100 100 100 100 100 100 100 100 100 100 100 100 100 100 100 100 100 100 77 6 41 40 100 100 100
1 5 5 0 36 74 100 100 94 100 94 100 100 100 100 100 100 100 100 100 100 100 100 100 100 100 100 100 100 100 100 100 100 99 58 100 86 68 91 99 100 100 100
5 5 5 0 26 51 100 100 100 100 98 91 100 100 100 100 100 100 100 100 100 100 100 100 100 100 100 100 100 100 100 94 100 97 100 100 100 100 100 100 100 100 100
7 5 2 0 2 37 100 90 96 96 100 100 100 100 100 100 100 100 100 100 100 100 100 100 100 100 100 100 100 100 98 100 100 100 100 100 100 100 100 100 100 100 100
77 5 2 0 0 33 30 100 95 100 100 99 100 100 100 100 100 100 100 100 100 100 100 100 100 100 87 93 100 100 100 100 100 100 100 100 100 100 100 100 100 100 100
90 28 6 1 0 7 2 100 99 100 100 100 100 100 100 100 100 100 100 100 100 100 100 100 100 100 100 100 100 100 100 100 100 100 100 100 100 100 100 100 100 100 100
32 11 36 0 3 12 0 100 100 100 98 100 100 100 100 100 100 100 100 100 100 100 100 100 100 100 100 100 100 100 100 100 100 100 100 100 100 100 100 100 100 100 100
5 78 93 75 5 34 0 1 100 100 100 91 100 100 100 100 100 100 100 100 100 100 100 100 100 100 100 100 100 100 100 100 100 100 100 100 100 100 100 99 97 99 100
1 46 27 100 97 100 3 0 6 78 98 100 96 95 100 100 100 100 100 100 100 100 100 100 100 100 100 100 100 100 100 99 100 100 100 100 100 100 100 92 100 92 100
5 1 5 33 100 100 87 0 0 4 47 100 100 79 94 100 100 100 100 100 100 100 100 100 100 100 100 100 100 100 100 100 100 100 100 100 100 100 94 69 95 100 100
9 5 5 96 100 100 100 54 0 0 1 15 51 100 83 100 100 27 38 100 98 100 100 100 100 100 100 100 100 100 100 100 100 100 100 100 70 98 84 100 100 100 100
3 9 5 31 32 98 100 100 41 0 0 0 2 10 75 100 42 88 99 100 58 45 62 100 100 100 100 100 100 100 100 100 100 100 100 94 86 100 100 100 100 100 100
64 100 6 6 68 12 100 100 100 85 2 0 0 0 0 4 8 36 82 88 83 74 72 95 100 100 100 100 99 78 54 43 86 59 90 97 100 100 100 100 100 100 100
88 50 5 2 88 65 89 100 100 100 65 5 2 0 0 0 7 25 96 100 100 100 63 82 10 37 62 20 19 21 35 18 5 31 91 100 100 100 100 100 100 100 100
37 78 77 87 5 20 100 100 100 100 100 85 5 5 0 0 0 0 0 0 21 43 11 21 6 64 32 7 78 27 45 90 100 100 100 100 100 100 99 100 100 100 100
45 69 95 79 79 11 40 100 100 100 100 100 100 17 5 5 0 0 0 3 21 14 0 5 14 41 43 100 100 100 100 100 100 100 100 100 100 100 100 100 100 100 100
22 32 94 68 100 100 57 10 100 100 100 100 100 100 100 54 4 1 0 0 0 2 38 62 59 59 97 100 100 100 100 100 100 100 100 100 100 100 100 100 100 100 100
100 100 62 41 100 93 100 93 60 100 100 100 100 100 100 100 100 42 6 20 41 68 100 100 100 100 100 100 100 100 100 100 100 100 100 100 100 100 100 100 100 100 100
99 97 98 100 98 100 100 100 99 100 86 100 100 100 100 100 100 100 100 100 81 99 100 100 100 100 100 100 100 100 100 100 100 100 100 100 100 100 100 100 100 100 100
27 5 5 40 5 21 100 97 100 99 99 71 100 100 100 100 100 100 100 100 100 100 100 100 100 100 100 100 100 100 100 100 100 100 100 100 100 100 100 100 100 100 100
5 5 3 34 22 8 86 100 100 74 87 100 100 100 100 100 100 100 100 100 100 100 100 100 100 100 100 100 100 100 100 100 100 100 100 100 100 100 100 100 100 100 100
50 75 68 98 97 63 43 97 100 100 100 100 100 100 100 100 100 100 100 100 100 100 100 100 100 100 100 100 100 100 100 100 100 100 100 100 100 100 100 100 100 100 100
100 100 100 100 100 100 100 100 100 100 100 100 100 100 100 100 100 100 100 100 100 100 100 100 100 100 100 100 100 100 100 100 100 100 100 100 100 100 100 100 100 100 100
100 100 100 100 100 100 100 100 100 100 100 100 100 100 100 100 100 100 100 100 100 100 100 100 100 100 100 100 100 100 100 100 100 100 100 100 100 100 100 100 100 100 100
100 100 100 100 100 100 100 100 100 100 100 100 100 100 100 100 100 100 100 100 100 100 100 100 100 100 100 100 100 100 100 100 100 100 99 100 100 100 100 100 100 100 100